                ,  0.290,  0.386,  0.483,  0.580,  0.676,  0.773,  0.869,  0.966,  1.063,  1.159,  1.256,  1.352,  1.449,  1.545,  1.642,  1.739,  1.835,  1.932,  2.028,  2.125,  2.222,  2.318,  2.415,  2.511,  2.608,  2.705,  2.801,  2.898,  2.994,  3.091,  3.188,  3.284,  3.381,  3.477,  3.574,  3.671,  3.767,  3.864,  3.960,  4.057,  4.153,  4.250,  4.347,  4.443,  4.540,  4.636,  4.733,  4.830,  4.926,  5.023,  5.119,  5.216,  5.313,  5.409,  5.506,  5.602,  5.699,  5.796
2000/11/06 00:00,  999.0,  999.0,  999.0,  999.0,  999.0,    2.0,  999.0,   -0.7,   -0.6,   -0.4,  999.0,  999.0,  999.0,  999.0,  999.0,  999.0,  999.0,  999.0,  999.0,  999.0,  999.0,  999.0,  999.0,  999.0,  999.0,  999.0,  999.0,  999.0,  999.0,  999.0,  999.0,  999.0,  999.0,  999.0,  999.0,  999.0,  999.0,  999.0,  999.0,  999.0,  999.0,  999.0,  999.0,  999.0,  999.0,  999.0,  999.0,  999.0,  999.0,  999.0,  999.0,  999.0,  999.0,  999.0,  999.0,  999.0,  999.0,  999.0
2000/11/06 00:10,  999.0,  999.0,   -2.4,   -0.7,    2.6,   -5.3,  999.0,   -1.0,   -1.0,   -2.3,    1.2,    0.7,   -0.7,    0.7,    1.5,  999.0,  999.0,  999.0,  999.0,  999.0,  999.0,  999.0,  -31.4,  999.0,  -36.2,  999.0,  -40.4,  -41.8,  -38.0,  999.0,  -29.6,  -24.4,  999.0,  -15.9,  -11.0,   -7.0,  999.0,  999.0,  999.0,  999.0,   -1.1,  999.0,  999.0,  999.0,  999.0,  999.0,  999.0,  999.0,  999.0,  999.0,  999.0,  999.0,  999.0,  999.0,  999.0,  999.0,  999.0,  999.0
2000/11/06 00:20,  999.0,    0.2,   -5.5,   -8.0,  999.0,   -9.3,   -0.1,    1.3,    0.3,    1.1,    1.2,    2.8,    1.7,    0.9,   -2.4,   -2.9,   -2.2,  999.0,  999.0,  999.0,  -20.4,  -22.9,  -18.5,  -25.5,  -25.5,  999.0,  -15.8,  -41.7,  -28.7,  -12.4,  999.0,  999.0,  999.0,  999.0,  999.0,  999.0,  999.0,  999.0,  999.0,  999.0,  999.0,  999.0,  999.0,  999.0,  999.0,  999.0,  999.0,  999.0,  999.0,  999.0,  999.0,  999.0,  999.0,  999.0,  999.0,  999.0,  999.0,  999.0
2000/11/06 00:30,  999.0,  999.0,  -16.5,   -4.6,   -2.4,    0.4,    4.6,    3.5,    0.2,    2.1,    4.7,    2.8,    4.0,    0.7,   -0.3,   -0.2,   -0.1,  -21.4,  999.0,  -17.9,  -20.1,  -21.2,  -21.1,  -23.8,  -24.6,  -25.6,  -27.3,  -28.8,  -23.4,  -27.9,  -15.3,  -35.2,  -27.8,  -26.6,  -12.8,  -23.6,  999.0,  999.0,  -10.1,  -11.4,  999.0,  999.0,  999.0,   -5.0,   -3.8,   -6.6,   -1.3,  999.0,   -4.8,  999.0,   -2.2,  999.0,   -2.1,   -1.6,   -1.0,   -1.4,  999.0,  999.0
2000/11/06 00:40,  999.0,  999.0,  999.0,    0.1,    1.4,  -21.1,   -4.6,   -7.9,  -10.2,   -0.6,  999.0,  999.0,    3.3,   -0.1,  999.0,  -18.3,   -0.3,  999.0,  -15.9,  -15.9,  -15.8,  -17.3,  -14.8,  -15.2,  -14.7,  -15.0,  -14.5,  -13.9,  -14.0,  999.0,  -11.2,  999.0,   -9.6,  999.0,  -11.2,   -6.0,   -5.5,  999.0,  999.0,  999.0,  999.0,   -5.3,   -1.4,  999.0,  999.0,   -3.4,   -5.6,  999.0,   -4.7,   -0.4,   -1.7,  999.0,  999.0,   -1.9,   -0.7,  999.0,   -2.6,  999.0
2000/11/06 00:50,  999.0,  999.0,   -1.6,  999.0,  999.0,  999.0,  999.0,  -19.5,  -12.5,   -0.3,  999.0,  -27.5,  999.0,  999.0,  -17.0,  -19.7,  999.0,  -18.0,  -14.2,  -20.3,  999.0,  -10.0,  999.0,  -16.3,  -13.1,  -12.2,   -5.8,   -5.9,   -6.8,   -5.1,   -9.5,   -8.4,  999.0,   -6.1,   -5.9,   -4.4,  999.0,  999.0,   -1.6,   -2.1,   -2.0,   -2.7,   -0.7,   -1.2,   -0.7,   -0.5,   -1.2,   -1.4,   -1.1,  999.0,   -0.9,  999.0,  999.0,  999.0,  999.0,   -0.6,   -0.4,   -1.0
2000/11/06 01:00,  999.0,  999.0,   -3.2,   -3.3,    0.9,    0.8,   -3.1,   -3.4,    0.3,    3.7,    1.3,  999.0,  999.0,    1.2,   -9.6,  -14.1,  -27.5,  -27.6,  -19.6,  -13.0,  999.0,  999.0,  -11.1,  -11.4,  999.0,  999.0,   -8.6,   -8.9,   -7.8,  999.0,   -6.4,   -5.6,  999.0,  999.0,   -4.5,   -3.9,  999.0,  999.0,   -1.2,   -1.3,   -1.0,   -0.6,  999.0,  999.0,   -0.2,   -0.8,  999.0,   -1.1,  999.0,   -1.1,   -0.3,  999.0,  999.0,  999.0,  999.0,  999.0,  999.0,   -1.2
2000/11/06 01:10,  999.0,  999.0,   -0.5,   -4.4,   -2.8,   -1.6,   -1.1,   -1.8,   -1.3,   -1.7,   -2.2,    0.8,    0.7,    0.1,    1.1,    1.9,  999.0,  999.0,  999.0,  999.0,  999.0,  999.0,  999.0,  999.0,  999.0,  999.0,  999.0,  999.0,  999.0,  999.0,    7.1,  999.0,  999.0,  999.0,  999.0,  999.0,  999.0,  999.0,  999.0,  999.0,  999.0,   -0.8,  999.0,  999.0,   -0.3,   -0.4,   -0.2,   -0.5,   -0.6,   -0.9,   -0.5,   -0.9,   -0.8,   -0.7,   -0.1,   -0.5,   -1.3,   -0.2
2000/11/06 01:20,  999.0,  999.0,   -1.2,   -2.2,   -3.7,   -7.9,   -6.2,    2.8,    0.4,   -0.6,   -0.5,   -0.0,    0.7,    0.7,    0.2,   -1.0,    0.2,  999.0,   14.1,  999.0,  999.0,  999.0,  999.0,  999.0,  999.0,   -8.9,  999.0,   -4.2,  999.0,   -1.0,    0.1,   -3.8,  999.0,   -0.9,  999.0,   -0.8,   -0.5,  999.0,   -0.6,   -1.6,   -0.4,  999.0,   -0.6,  999.0,   -1.0,  999.0,  999.0,   -0.4,   -0.3,  999.0,   -0.3,  999.0,   -0.6,   -1.6,   -1.0,   -1.2,   -0.4,   -0.8
2000/11/06 01:30,  999.0,  999.0,  999.0,   -3.0,   -6.6,    1.7,    0.4,    2.2,   -0.2,   -1.3,   -0.8,    0.4,    1.1,    2.2,    0.4,   -0.2,   -1.3,  999.0,  999.0,  999.0,  999.0,  999.0,  999.0,  999.0,  999.0,  999.0,  999.0,   -7.2,  999.0,  999.0,   -2.7,   -1.8,  999.0,  999.0,  999.0,  999.0,   -1.1,   -0.9,  999.0,   -0.2,   -0.8,   -0.6,   -0.4,  999.0,  999.0,  999.0,  999.0,  999.0,  999.0,   -0.9,   -0.2,   -1.2,   -0.2,  999.0,   -1.5,   -0.5,   -0.3,  999.0
2000/11/06 01:40,  999.0,  999.0,    4.0,    6.7,    1.3,   -1.4,   -1.2,   -0.4,   -2.1,   -1.6,   -1.7,    0.4,    0.2,   -0.5,   -0.4,   -2.2,   -0.6,  999.0,  999.0,  999.0,  -10.5,   -4.1,  999.0,  999.0,  999.0,   -5.8,  -12.9,  999.0,  999.0,  999.0,  999.0,  -14.5,  -12.5,   -7.7,  999.0,   -8.7,  999.0,  999.0,  999.0,   -7.0,   -6.2,   -9.2,  999.0,   -1.3,  999.0,   -8.2,   -7.2,   -4.1,  999.0,   -6.3,   -3.1,   -1.3,   -3.0,   -1.0,   -1.5,   -3.5,   -3.4,   -0.6
2000/11/06 01:50,  999.0,    1.5,    0.3,    0.1,   -1.1,   -1.0,   -1.8,   -1.0,   -0.3,   -1.1,   -0.1,    0.3,    0.2,    0.2,    1.7,    0.5,    3.1,  999.0,   -5.0,  999.0,  999.0,   -8.9,   -8.2,  999.0,  999.0,  999.0,  999.0,  999.0,  -12.1,  -11.2,   -8.3,   -9.6,   -7.2,   -7.5,   -5.5,   -6.5,   -6.3,   -3.6,   -2.6,  999.0,   -6.8,   -3.3,   -4.9,  999.0,   -2.2,   -1.4,   -0.4,   -0.9,   -1.1,   -0.1,   -0.9,   -0.5,   -0.4,   -0.3,    0.0,   -0.8,   -0.5,   -0.9
2000/11/06 02:00,  999.0,  999.0,  999.0,    1.6,   -1.5,   -0.2,   -1.0,   -2.2,   -2.4,   -2.0,   -1.2,   -0.4,   -0.3,   -0.3,    0.1,   -0.1,   -1.9,   -2.5,  999.0,  999.0,  999.0,  999.0,  999.0,  999.0,  999.0,  999.0,  999.0,  -13.3,  999.0,  999.0,  -11.1,  -10.5,  999.0,   -5.2,   -5.3,   -2.8,   -3.7,   -5.2,   -2.2,  999.0,    0.1,   -1.7,  999.0,   -0.5,   -1.2,   -1.0,   -0.4,   -0.5,   -1.1,  999.0,   -0.5,   -0.0,   -0.8,   -0.9,  999.0,   -0.5,   -0.9,   -0.0
2000/11/06 02:10,  999.0,    2.2,   -1.4,   -2.6,   -2.3,   -1.7,   -2.6,   -1.5,   -1.4,   -0.9,   -0.7,   -0.5,   -0.2,   -0.7,   -0.8,   -0.8,   -0.9,   -2.2,   -4.6,   -2.8,   -2.7,  999.0,  999.0,  999.0,  999.0,  999.0,   -9.8,  999.0,  999.0,  999.0,   -6.9,   -4.2,   -4.0,   -4.5,   -2.8,   -1.5,   -1.0,   -0.8,    0.1,   -0.7,   -0.8,   -0.7,   -0.7,   -0.5,  999.0,   -1.0,   -0.8,   -1.2,   -0.8,   -0.8,   -0.4,   -0.7,   -0.2,   -0.3,   -0.5,   -0.6,   -1.0,   -1.1
2000/11/06 02:20,  999.0,    0.8,    1.5,  999.0,   -1.5,   -2.3,   -1.0,   -2.0,   -0.7,   -0.5,    0.0,    6.8,   -0.1,   -0.6,   -1.5,   -1.3,   -1.5,   -3.0,   -7.4,  999.0,  999.0,  999.0,  999.0,  999.0,  999.0,  999.0,  999.0,   -5.3,   -2.9,   -1.1,   -0.5,   -0.4,   -1.1,   -0.2,  999.0,   -0.2,   -0.8,   -0.3,   -1.1,   -0.5,   -1.4,   -1.0,   -1.5,   -1.4,   -2.0,   -1.5,   -1.1,   -0.8,   -0.9,   -1.2,   -0.7,  999.0,   -1.3,   -0.8,  999.0,   -1.3,   -1.5,   -1.3
2000/11/06 02:30,  999.0,    1.5,   -1.2,   -0.6,    1.6,   -0.7,   -0.5,    0.1,    0.6,    1.0,    0.6,    0.1,    1.0,    0.3,   -0.0,   -0.5,    0.6,   -2.3,    0.6,  999.0,  999.0,    8.2,  999.0,  999.0,  999.0,  999.0,  999.0,  999.0,   -1.9,   -0.5,   -0.7,   -1.4,  999.0,   -0.4,   -1.0,   -0.6,   -0.1,  999.0,   -0.4,   -0.7,   -0.5,   -0.4,   -0.6,   -0.8,   -0.7,   -0.9,   -0.9,  999.0,   -1.0,   -0.8,   -1.3,   -1.3,   -0.3,   -0.4,   -0.8,   -0.2,  999.0,   -0.4
2000/11/06 02:40,  999.0,    0.8,    3.3,    1.7,    0.5,   -0.2,    1.8,   -1.0,    3.3,    2.6,    3.7,    1.3,    0.4,   -0.2,   -0.1,   -1.0,    5.5,  999.0,  999.0,   -1.2,  999.0,  999.0,   12.9,  999.0,  999.0,  999.0,   -1.4,   -2.1,   -2.5,   -1.3,   -1.1,   -0.5,   -0.7,   -0.9,   -0.6,    0.1,   -1.4,   -1.4,   -0.3,   -0.7,   -0.5,   -0.7,   -1.0,   -0.6,   -1.0,   -0.4,   -0.8,   -1.0,   -0.4,   -0.3,   -1.1,   -1.0,   -0.7,   -0.1,   -0.9,   -0.5,   -0.0,   -1.2
2000/11/06 02:50,  999.0,    5.5,   -1.9,    0.6,   -1.4,   -1.0,   -1.7,   -0.4,   -0.4,  999.0,    3.1,  999.0,    1.6,   -1.5,    1.6,   -1.5,   -0.8,   -1.0,    1.0,   10.9,  999.0,   -1.6,   -1.3,  999.0,  999.0,   -8.8,  -12.0,   -9.7,  -11.5,   -4.0,   -1.1,   -7.8,  999.0,   -1.3,   -0.6,   -0.1,   -0.2,   -0.7,  999.0,   -0.6,   -0.7,   -1.0,   -0.4,   -0.8,   -0.6,   -1.3,   -1.2,   -0.4,   -0.7,   -0.5,   -1.0,   -1.0,   -0.8,   -0.2,    0.0,   -0.6,    0.6,   -1.1
2000/11/06 03:00,  999.0,  999.0,  999.0,  999.0,  999.0,   -0.2,    0.5,    1.7,    2.0,    1.7,    0.4,    2.0,   -0.3,   -0.9,   -0.6,   -0.2,  999.0,   -3.9,   -0.7,  999.0,  999.0,  999.0,  999.0,  999.0,  999.0,  -12.1,   -9.7,   -6.7,   -8.3,   -7.8,   -7.4,  999.0,  999.0,   -5.6,  999.0,  999.0,   -1.9,   -0.9,   -1.5,   -0.7,  999.0,  999.0,   -0.5,   -0.4,   -0.8,   -0.9,   -0.7,  999.0,   -0.5,  999.0,   -0.6,   -0.8,   -0.7,   -0.9,   -0.3,  999.0,  999.0,  999.0
2000/11/06 03:10,  999.0,  999.0,    2.5,    1.9,  999.0,  999.0,   -0.7,  999.0,    0.7,    0.5,  999.0,    3.6,   -0.2,   -0.0,    3.9,   -0.5,   -0.0,   -2.4,   -5.0,  999.0,  999.0,  999.0,  999.0,  999.0,  999.0,  -10.0,   -3.7,   -8.8,   -5.5,   -5.4,   -8.8,   -0.7,   -1.0,   -0.8,   -1.1,   -2.3,   -0.2,   -0.8,   -0.9,   -0.5,   -0.8,   -1.0,   -0.9,   -0.7,   -1.3,   -0.3,   -0.3,   -0.4,   -0.4,   -0.8,   -0.8,   -1.0,   -0.7,   -0.2,   -0.9,  999.0,   -0.5,   -0.2
2000/11/06 03:20,  999.0,   -1.3,   -2.6,    2.3,    0.3,   -1.1,   -3.2,   -2.7,   -2.0,    3.3,    0.8,  999.0,    0.1,   -0.6,   -0.7,   -1.3,    0.7,  999.0,  999.0,  999.0,    0.3,    0.9,  999.0,  999.0,   -7.9,  999.0,  999.0,  999.0,  -11.3,   -9.0,   -7.6,   -4.4,   -4.7,   -2.6,   -4.0,   -2.0,  999.0,   -1.7,  999.0,   -0.8,   -0.6,   -0.8,   -0.7,   -1.0,   -0.2,   -0.2,   -0.6,  999.0,  999.0,   -0.1,   -0.6,  999.0,   -0.5,   -0.3,    0.2,   -0.2,  999.0,  999.0
2000/11/06 03:30,  999.0,    3.1,    0.8,    0.3,    0.8,    1.9,    1.2,   -0.2,    1.0,    1.2,    1.4,   -0.0,    0.6,   -0.4,   -1.3,   -0.2,   -1.9,  999.0,  999.0,  999.0,  999.0,  999.0,  999.0,  999.0,  999.0,  999.0,  999.0,  999.0,  999.0,  -10.7,   -6.1,   -3.0,   -0.3,   -0.7,   -0.3,   -1.0,   -0.5,   -0.4,   -1.5,   -0.3,   -1.1,   -0.7,  999.0,  999.0,   -0.8,  999.0,   -0.6,   -0.7,   -1.2,   -1.0,   -0.7,   -0.5,   -0.9,   -1.0,   -0.9,  999.0,   -0.8,  999.0
2000/11/06 03:40,  999.0,   -1.4,  999.0,  999.0,   -1.1,   -0.6,    0.0,   -1.3,   -4.4,   -2.2,   -0.8,    0.8,    0.1,   -0.1,    1.3,   -1.6,  999.0,    1.1,   -7.7,  999.0,  999.0,    5.4,  999.0,  999.0,  999.0,  999.0,  999.0,  999.0,  999.0,  999.0,  999.0,  999.0,   -0.4,   -3.1,  999.0,   -0.2,   -0.7,  999.0,   -0.2,  999.0,   -0.4,   -0.6,  999.0,   -1.0,   -0.0,  999.0,  999.0,  999.0,   -0.8,    0.2,   -0.2,  999.0,   -1.1,  999.0,   -1.1,  999.0,   -0.7,  999.0
2000/11/06 03:50,  999.0,    1.1,    0.1,   -1.2,   -1.5,   -0.2,    2.5,    1.4,    1.8,    0.2,  999.0,  999.0,  999.0,   -2.1,   -0.5,   -0.6,   -0.0,  999.0,   -7.7,  999.0,    0.8,  999.0,  999.0,  999.0,  999.0,  999.0,  999.0,  999.0,  999.0,  999.0,  999.0,  999.0,  999.0,  999.0,  999.0,  999.0,  999.0,  999.0,  999.0,  999.0,  999.0,  999.0,  999.0,  999.0,  999.0,  999.0,  999.0,  999.0,  999.0,  999.0,  999.0,  999.0,  999.0,  999.0,  999.0,  999.0,  999.0,  999.0
2000/11/06 04:00,  999.0,  999.0,    1.4,    0.2,    2.2,    1.3,   -0.1,    0.2,    0.1,   -2.8,   -0.5,   -0.3,    0.2,   -0.0,   -0.2,   -0.7,   -0.4,  999.0,  999.0,  999.0,  999.0,  999.0,  999.0,  999.0,  999.0,  999.0,  999.0,  999.0,  999.0,  999.0,  999.0,  999.0,  999.0,  999.0,  999.0,  999.0,  999.0,  999.0,  999.0,  999.0,  999.0,  999.0,  999.0,  999.0,  999.0,  999.0,  999.0,  999.0,  999.0,  999.0,  999.0,  999.0,  999.0,  999.0,  999.0,  999.0,  999.0,  999.0
2000/11/06 04:10,  999.0,   -0.6,    6.7,  999.0,    1.8,    1.5,    1.3,    1.1,   -0.4,   -0.5,   -0.6,   -0.4,   -0.4,   -0.4,    2.6,    0.4,  999.0,  999.0,  999.0,   -4.6,  999.0,  999.0,  -17.2,  999.0,  999.0,  -11.1,  -10.5,  -10.9,  -10.5,   -9.2,  999.0,   -6.7,   -4.1,   -3.8,   -3.0,   -1.2,   -1.5,   -1.0,   -0.5,   -1.7,  999.0,   -0.4,  999.0,  999.0,  999.0,   -0.8,  999.0,   -0.4,   -0.3,  999.0,  999.0,  999.0,  999.0,  999.0,   -0.5,   -1.2,  999.0,  999.0
2000/11/06 04:20,  999.0,  999.0,   -2.1,    3.6,    8.2,    2.2,    2.7,    2.1,    0.5,   -1.2,   -1.4,   -0.3,    0.5,    0.1,  999.0,  999.0,   -9.4,   -8.9,  999.0,  999.0,  999.0,  999.0,  999.0,  999.0,   -4.6,  999.0,  999.0,  999.0,  999.0,  999.0,  999.0,  999.0,   -8.5,   -3.7,  999.0,   -6.2,  999.0,  999.0,  999.0,   -5.8,  999.0,   -0.7,  999.0,   -3.6,   -0.8,   -0.8,   -1.1,   -1.3,  999.0,   -0.7,    0.2,   -0.3,  999.0,   -0.1,  999.0,   -0.5,   -1.0,  999.0
2000/11/06 04:30,  999.0,  999.0,  999.0,    1.0,    2.7,    1.4,    2.3,    1.3,    0.7,   -1.0,   -1.8,   -0.3,  999.0,   -0.8,   -6.7,    0.7,    0.9,  999.0,  999.0,  999.0,  -11.0,  999.0,  999.0,  999.0,  999.0,  999.0,  999.0,  999.0,  999.0,   -6.1,   -9.3,   -8.0,  999.0,   -6.0,  999.0,   -3.9,   -2.2,   -1.9,   -0.8,   -0.3,   -1.2,   -0.9,   -1.0,   -1.5,   -0.7,   -1.0,  999.0,   -0.7,   -0.4,   -1.3,   -0.4,   -0.6,    0.5,  999.0,  999.0,   -0.8,   -0.8,   -0.8
2000/11/06 04:40,  999.0,    2.5,    2.8,    0.3,  999.0,    1.0,   -2.4,    0.0,    1.2,   -0.1,   -0.2,   -0.6,    1.1,  999.0,    0.5,  999.0,  999.0,  999.0,   -2.1,   -0.4,  999.0,  999.0,  999.0,  999.0,  999.0,  999.0,  999.0,  999.0,   -8.4,  999.0,   -8.5,   -9.5,   -8.5,   -6.9,   -3.4,   -3.0,   -1.5,   -0.7,   -0.4,   -1.5,   -1.3,   -0.5,   -0.8,   -0.2,   -0.6,   -0.5,    0.1,   -1.1,   -1.1,    1.0,  999.0,   -0.8,   -1.3,   -0.6,  999.0,  999.0,   -0.7,   -0.9
2000/11/06 04:50,  999.0,  999.0,  999.0,    4.3,   -2.1,    1.0,   -1.8,   -0.3,   -0.8,   -0.7,   -1.8,   -1.6,  999.0,    1.6,  999.0,    0.1,    0.4,  999.0,  999.0,  999.0,  999.0,  999.0,  999.0,  999.0,  999.0,  999.0,  999.0,  999.0,  999.0,   -4.8,   -3.8,  999.0,   -1.9,   -0.8,   -0.7,   -0.1,   -0.4,  999.0,   -1.1,  999.0,    0.4,   -0.1,   -0.1,   -0.4,   -0.6,   -0.8,  999.0,   -0.2,   -0.8,   -0.4,   -0.7,  999.0,   -0.6,   -1.0,   -0.5,   -0.2,   -0.5,   -0.7
2000/11/06 05:00,  999.0,  999.0,  999.0,    0.6,    1.0,    1.5,   -5.2,    0.6,    0.4,   -1.1,   -1.6,   -2.0,   -0.5,   -0.4,  999.0,  -12.5,  -15.1,  -21.3,  999.0,  999.0,  999.0,  999.0,  999.0,  999.0,  999.0,  999.0,  999.0,  999.0,  999.0,  999.0,  999.0,  999.0,   -2.4,  999.0,   -0.4,  999.0,  999.0,   -0.8,   -0.7,  999.0,  999.0,   -0.7,  999.0,  999.0,   -0.4,   -1.0,   -0.9,   -1.3,  999.0,   -0.0,  999.0,  999.0,    0.0,   -2.0,   -1.0,  999.0,  999.0,   -1.3
2000/11/06 05:10,  999.0,    1.2,    1.6,    1.6,    1.3,    1.6,    0.5,    0.6,   -0.5,   -0.7,   -1.1,   -1.2,   -1.8,  999.0,  999.0,  999.0,  999.0,  999.0,  999.0,  999.0,   -2.0,  999.0,  999.0,  999.0,  999.0,  999.0,  999.0,  999.0,  999.0,  999.0,  999.0,  999.0,  999.0,  999.0,   -0.8,  999.0,  999.0,   -3.1,   -1.3,   -0.3,   -0.7,   -1.0,   -1.1,   -0.5,  999.0,   -0.8,   -0.0,   -0.9,   -1.3,  999.0,   -0.8,   -0.6,   -1.0,   -0.7,   -0.3,  999.0,   -0.5,   -0.7
2000/11/06 05:20,  999.0,    2.0,    2.0,    1.0,    1.4,    1.6,    0.9,   -0.7,    0.0,   -0.5,   -1.3,   -0.8,   -0.5,  999.0,  999.0,  999.0,  999.0,  999.0,  999.0,  999.0,  999.0,  999.0,  999.0,  999.0,  999.0,  999.0,  999.0,  999.0,  -12.0,  999.0,   -8.0,  999.0,   -9.1,   -8.5,   -9.2,   -7.5,   -5.1,  999.0,   -3.1,   -4.5,   -2.2,   -2.1,   -0.9,   -1.6,   -1.3,  999.0,   -1.0,   -0.6,   -0.5,   -1.0,   -0.7,   -0.1,   -0.4,   -0.4,   -0.5,   -0.3,  999.0,   -0.9
2000/11/06 05:30,  999.0,    0.9,   -0.5,    1.3,    2.6,    1.3,    1.3,    3.4,   -0.6,   -2.0,   -1.1,   -1.3,   -1.0,   -0.8,  999.0,  999.0,  999.0,  999.0,  999.0,   -6.1,  999.0,  999.0,  999.0,  999.0,  999.0,  999.0,  999.0,  -10.6,  999.0,  999.0,  -12.1,   -7.2,  999.0,   -6.4,   -7.7,   -8.2,   -6.8,   -7.4,   -3.6,   -3.6,   -1.4,   -1.2,   -2.3,   -1.3,   -1.7,   -1.2,   -0.4,  999.0,   -0.8,   -0.4,   -0.6,   -0.9,   -0.5,  999.0,   -0.9,   -0.4,   -0.5,   -1.2
2000/11/06 05:40,  999.0,    1.6,    1.7,    1.2,    2.6,    0.5,    0.0,   -0.1,   -1.5,   -0.5,   -1.3,   -2.2,   -0.2,   -1.0,   -0.8,  999.0,   -4.4,  999.0,   -2.5,  999.0,  999.0,  999.0,  999.0,  999.0,  999.0,  999.0,  999.0,  999.0,  -13.2,  -12.5,  -11.3,  -10.7,  999.0,   -7.4,   -7.8,   -7.9,   -5.5,  999.0,   -4.6,   -3.1,  999.0,   -0.4,   -0.8,   -0.9,   -1.4,  999.0,   -0.5,   -1.3,   -1.1,  999.0,   -0.4,  999.0,  999.0,  999.0,   -0.7,   -1.1,  999.0,  999.0
2000/11/06 05:50,  999.0,  999.0,    1.5,  999.0,  999.0,   -1.5,   -0.3,  999.0,    1.6,   -1.4,   -2.0,   -1.8,  999.0,   -0.7,   -2.1,  999.0,  999.0,  999.0,  999.0,  999.0,  999.0,  999.0,  999.0,  999.0,  999.0,  999.0,  999.0,  999.0,  999.0,  999.0,  999.0,  999.0,  -10.4,   -8.8,  999.0,   -5.8,   -6.7,  999.0,  999.0,   -2.7,  999.0,  999.0,   -1.2,   -1.0,  999.0,   -1.0,  999.0,  999.0,   -1.3,   -0.6,  999.0,   -1.0,  999.0,  999.0,   -1.4,  999.0,  999.0,  999.0
2000/11/06 06:00,  999.0,    1.4,    3.1,    2.5,  999.0,  999.0,  999.0,   -1.9,   -4.5,   -5.0,    0.9,   -0.3,   -0.5,   -0.8,  999.0,  999.0,  999.0,  999.0,  999.0,  999.0,  999.0,  999.0,  999.0,  999.0,  999.0,  999.0,  999.0,  999.0,  999.0,  999.0,  999.0,  999.0,  999.0,  999.0,  999.0,  999.0,  999.0,  999.0,  999.0,  999.0,  999.0,  999.0,  999.0,  999.0,  999.0,  999.0,  999.0,  999.0,  999.0,  999.0,  999.0,  999.0,  999.0,  999.0,  999.0,  999.0,  999.0,  999.0
2000/11/06 06:10,  999.0,    0.1,    3.6,    2.0,   -3.2,    0.0,    1.1,    0.3,   -2.2,    0.0,    0.0,   -0.8,    0.5,  999.0,  999.0,  999.0,  999.0,  999.0,  999.0,  999.0,  999.0,  999.0,  999.0,  999.0,  999.0,  999.0,  999.0,  999.0,  999.0,  999.0,  999.0,  999.0,  999.0,  999.0,  999.0,  999.0,  999.0,  999.0,  999.0,  999.0,  999.0,  999.0,  999.0,  999.0,  999.0,  999.0,  999.0,  999.0,  999.0,  999.0,  999.0,  999.0,  999.0,  999.0,  999.0,  999.0,  999.0,  999.0
2000/11/06 06:20,  999.0,    2.2,    0.3,    1.0,    0.0,    3.7,   -2.7,   -7.1,    3.0,    0.8,  999.0,    0.2,    0.3,    0.6,   -4.6,  999.0,  999.0,  999.0,  999.0,  999.0,  999.0,  999.0,  999.0,  999.0,  999.0,  999.0,  999.0,  999.0,  999.0,  999.0,  999.0,  999.0,  999.0,  999.0,  999.0,  999.0,  999.0,  999.0,  999.0,  999.0,  999.0,  999.0,  999.0,  999.0,  999.0,  999.0,  999.0,  999.0,  999.0,  999.0,  999.0,  999.0,  999.0,  999.0,  999.0,  999.0,  999.0,  999.0
2000/11/06 06:30,  999.0,    1.3,    1.7,    0.7,    0.5,    4.2,    1.3,    2.1,   -0.9,  999.0,   -0.5,   -0.1,    0.0,   -1.1,  999.0,  999.0,  999.0,  999.0,  999.0,  999.0,  999.0,  999.0,  999.0,  999.0,  999.0,  999.0,  999.0,  999.0,  999.0,  999.0,  999.0,  999.0,  999.0,  999.0,  999.0,  999.0,  999.0,  999.0,  999.0,  999.0,  999.0,  999.0,  999.0,  999.0,  999.0,  999.0,  999.0,  999.0,  999.0,  999.0,  999.0,  999.0,  999.0,  999.0,  999.0,  999.0,  999.0,  999.0
2000/11/06 06:40,  999.0,    0.3,    0.1,    0.6,    3.8,    3.1,    1.7,    1.8,  999.0,   -3.8,  999.0,   -0.6,   -0.6,   -0.7,  999.0,  999.0,  999.0,  999.0,  999.0,  999.0,  999.0,  999.0,  999.0,  999.0,  999.0,  999.0,  999.0,  999.0,  999.0,  999.0,  999.0,  -42.3,  999.0,  -42.3,  -41.9,  999.0,  -41.7,  999.0,  999.0,  -42.0,  999.0,  999.0,  999.0,  999.0,  -41.6,  -41.9,  999.0,  999.0,  -42.0,  -41.1,  -41.6,  999.0,  999.0,  999.0,  999.0,  999.0,  999.0,  999.0
2000/11/06 06:50,  999.0,   -0.8,    0.4,    0.9,    2.2,    3.1,    2.6,    1.1,   -0.0,   -0.9,   -0.5,  999.0,   -0.7,   -2.1,  999.0,   -4.0,  999.0,  999.0,   -6.7,   -9.3,  999.0,  999.0,  -19.2,  999.0,  999.0,  999.0,  999.0,  -41.7,  -42.0,  -41.8,  -41.9,  -42.3,  -42.2,  -42.2,  -41.5,  -41.7,  -42.8,  -42.1,  -41.7,  -42.2,  -42.2,  -41.6,  -41.7,  -41.7,  999.0,  -41.6,  -41.7,  -42.1,  -41.6,  -41.8,  -41.6,  -41.6,  -41.4,  -41.8,  -41.8,  -42.0,  -41.6,  -41.5
2000/11/06 07:00,  999.0,    0.1,   -0.1,    0.8,    2.8,    1.9,    2.2,    1.2,    0.4,   -4.6,   -1.5,   -1.6,   -1.6,   -2.4,  999.0,  999.0,  999.0,  999.0,  999.0,  999.0,  999.0,  999.0,  999.0,  999.0,  -36.3,  -38.6,  -41.4,  -41.3,  -41.6,  -41.5,  -41.8,  -42.0,  -41.5,  -41.3,  -41.4,  -41.6,  -41.2,  -41.7,  -41.8,  -41.7,  -41.8,  -41.6,  -41.8,  -41.2,  -41.6,  -42.3,  -41.8,  -41.9,  -41.7,  -41.4,  -41.2,  -41.4,  -41.2,  -40.8,  -41.6,  -41.3,  -42.0,  -41.1
2000/11/06 07:10,  999.0,   -1.9,   -0.4,    0.5,    2.4,    2.3,    2.2,    1.2,   -0.3,  999.0,   -0.3,   -2.0,   -2.0,   -0.4,  999.0,  999.0,  999.0,  999.0,  999.0,  999.0,  999.0,  -33.7,  999.0,  999.0,  -40.2,  -41.0,  -41.7,  -41.2,  999.0,  999.0,  -43.0,  -41.7,  -41.1,  -42.3,  -41.6,  -41.8,  -41.7,  -42.1,  -41.7,  -42.0,  -41.6,  -42.4,  999.0,  -42.4,  -41.9,  -41.5,  -42.4,  -41.5,  -41.8,  -42.5,  -41.3,  -41.5,  -42.0,  -41.5,  999.0,  -41.3,  -41.6,  -41.9
2000/11/06 07:20,  999.0,   -1.7,   -0.8,    1.4,    2.1,    1.3,    1.4,    0.8,    0.2,  999.0,  999.0,   -2.3,   -1.9,   -2.3,  999.0,  999.0,  999.0,  999.0,  999.0,  999.0,  999.0,  999.0,  -31.8,  999.0,  -37.4,  -37.8,  -38.5,  -40.7,  -41.2,  -41.7,  -42.1,  -41.5,  999.0,  -41.6,  -42.0,  -41.2,  -41.2,  -41.6,  -42.1,  -41.2,  -42.2,  -41.9,  -41.8,  -41.6,  -41.5,  -42.1,  -41.4,  -41.7,  -41.8,  -41.3,  -42.4,  -41.4,  -41.6,  -41.4,  -41.9,  -41.8,  -42.0,  -42.2
2000/11/06 07:30,  999.0,   -1.3,   -0.4,    1.1,    1.7,    1.5,    3.2,    2.3,   -0.6,  999.0,  999.0,   -1.6,  999.0,  999.0,  999.0,  999.0,  999.0,  999.0,  999.0,  999.0,  999.0,  999.0,  999.0,  999.0,  999.0,  -39.2,  -38.9,  -38.4,  -40.8,  -41.5,  999.0,  -42.1,  -41.3,  999.0,  -41.5,  -41.6,  999.0,  -42.4,  999.0,  -41.5,  -41.4,  -41.6,  -41.1,  -42.0,  -41.6,  -42.1,  -41.4,  -41.7,  -41.4,  -41.7,  -41.8,  -41.6,  -40.5,  -41.8,  -42.2,  -41.8,  -41.5,  -41.4
2000/11/06 07:40,  999.0,   -1.6,   -0.5,   -0.1,    0.9,    3.6,    1.4,    1.7,    0.0,  999.0,   -0.9,  999.0,    0.1,   -1.1,   -1.8,  999.0,  999.0,  999.0,  999.0,  999.0,  999.0,  999.0,  999.0,  999.0,  -35.1,  999.0,  -37.4,  -40.0,  -40.6,  -41.7,  -41.0,  999.0,  -41.7,  -41.5,  999.0,  -41.6,  -41.6,  999.0,  999.0,  -42.2,  -41.4,  -41.6,  -41.3,  -41.3,  -42.0,  -41.8,  999.0,  999.0,  -41.4,  -41.4,  -41.4,  -41.5,  -41.6,  -41.3,  -41.4,  -41.4,  -41.8,  -41.7
2000/11/06 07:50,  999.0,   -1.2,   -1.4,   -2.0,    2.4,    0.1,    0.8,    1.3,   -0.1,   -0.9,   -4.1,  999.0,  999.0,   -2.4,   -6.5,  999.0,  999.0,  999.0,  999.0,  999.0,  999.0,  999.0,  999.0,  -35.3,  -39.2,  -42.7,  -41.2,  -42.6,  -42.2,  -41.1,  999.0,  -41.3,  -41.7,  -41.3,  -41.9,  -42.1,  -42.0,  -42.3,  -41.9,  -41.8,  -41.8,  -42.0,  -41.5,  -41.9,  -41.8,  -42.0,  -42.5,  999.0,  -42.3,  -41.1,  -42.5,  -41.8,  -41.5,  -41.5,  -41.6,  -41.5,  -42.1,  -41.2
2000/11/06 08:00,  999.0,   -2.1,   -1.6,   -1.9,    1.3,    0.9,    0.9,    0.2,   -1.3,  999.0,  999.0,  999.0,   -5.1,   -2.5,  999.0,  999.0,  999.0,  999.0,  -15.9,  999.0,  -29.6,  -32.2,  -32.6,  999.0,  999.0,  -38.1,  999.0,  -41.6,  -41.6,  999.0,  -42.3,  -41.7,  -41.4,  -42.1,  -41.5,  -41.2,  -42.0,  -41.8,  -41.2,  -42.0,  -42.1,  -42.0,  -42.0,  -41.5,  -41.6,  -41.6,  -41.8,  -41.9,  -41.5,  -42.2,  -41.9,  -41.6,  -41.9,  -41.7,  -41.6,  -41.2,  -42.1,  -41.2
2000/11/06 08:10,  999.0,   -0.9,   -2.5,   -1.8,   -0.1,    1.3,    1.0,   -0.6,   -4.0,  999.0,  999.0,  999.0,  999.0,   -1.5,  999.0,  999.0,  999.0,  999.0,  999.0,  999.0,  999.0,  999.0,  999.0,  -32.5,  -38.6,  -38.5,  -36.5,  -39.0,  -41.5,  -41.7,  -41.6,  -41.3,  -41.3,  -42.0,  -41.7,  -41.2,  -42.2,  -41.6,  -42.0,  -42.0,  -42.5,  -43.0,  -41.8,  -42.0,  -41.9,  -41.9,  -41.9,  999.0,  -41.9,  -41.7,  -42.1,  999.0,  -42.0,  -41.1,  999.0,  -41.8,  -41.6,  -42.0
2000/11/06 08:20,  999.0,   -1.5,   -0.7,   -2.5,    0.2,    0.4,    0.6,   -0.1,   -0.8,    4.5,  999.0,    0.5,   -0.9,   -1.7,  999.0,  999.0,  999.0,  -22.8,  -25.1,  -22.4,  -29.5,  -29.4,  -30.5,  -31.0,  -32.8,  999.0,  -37.2,  -38.7,  -39.7,  -41.8,  -41.8,  -41.4,  -41.4,  -41.5,  -41.5,  -41.9,  -41.4,  -42.2,  -41.5,  -41.0,  -42.1,  -40.9,  -41.8,  -41.8,  -42.1,  -42.3,  -41.6,  -41.8,  -41.5,  -41.9,  -42.4,  -41.6,  -41.7,  -41.5,  -41.9,  -41.4,  -42.0,  -41.9
2000/11/06 08:30,  999.0,   -1.1,   -0.8,   -2.0,   -0.8,   -0.7,    0.0,   -0.8,   -1.0,  999.0,  999.0,  999.0,  999.0,  999.0,  999.0,  999.0,  -22.6,  -24.3,  -25.9,  -30.1,  -30.0,  -31.7,  -35.7,  -35.4,  -39.5,  -38.7,  -41.4,  -42.3,  -42.2,  -41.8,  -41.6,  -41.8,  -42.5,  -42.4,  -42.3,  -41.6,  999.0,  -41.8,  -41.7,  -42.1,  -41.8,  -41.8,  -42.2,  -41.6,  -41.8,  -41.3,  -41.8,  -41.4,  -42.2,  -41.4,  -41.0,  -41.5,  -41.4,  -41.3,  -41.6,  -41.9,  -41.7,  -41.7
2000/11/06 08:40,  999.0,   -1.6,   -1.3,   -2.5,   -1.0,    0.3,   -0.3,    0.6,  999.0,  999.0,  999.0,  999.0,  999.0,  -21.1,  999.0,  999.0,  -23.5,  -25.4,  -27.1,  999.0,  -32.0,  -36.0,  -34.8,  -38.7,  -39.9,  -41.2,  999.0,  -42.3,  -42.8,  -42.3,  -42.1,  -41.9,  -41.8,  -41.9,  -41.9,  -41.9,  -42.0,  -42.0,  -42.0,  -41.9,  -41.8,  -41.8,  -42.2,  -41.7,  999.0,  -42.0,  -41.9,  -41.8,  -42.3,  -42.1,  -42.0,  -42.2,  -42.4,  -42.0,  -41.6,  -41.5,  -42.4,  -41.7
2000/11/06 08:50,  999.0,   -1.6,   -2.0,   -1.7,   -1.6,   -1.9,    0.1,  999.0,  999.0,  999.0,    2.3,   -0.6,   -0.5,  999.0,  999.0,  -22.3,  -24.0,  -26.0,  -28.3,  -30.8,  -32.4,  -34.6,  -37.8,  -37.7,  -41.0,  999.0,  -41.7,  -41.6,  -41.5,  -41.7,  -41.6,  -42.0,  -41.8,  -41.5,  -41.9,  -42.1,  -42.0,  -41.7,  -41.8,  -42.0,  -41.7,  -41.8,  -41.6,  -42.0,  -41.6,  -41.9,  -41.9,  -41.7,  -41.8,  -41.7,  999.0,  -42.1,  -42.2,  -41.9,  999.0,  -41.5,  -41.2,  -41.1
2000/11/06 09:00,  999.0,   -2.0,   -2.2,   -2.7,   -4.0,  -11.4,  999.0,  -20.7,  999.0,  999.0,  999.0,   -0.4,  999.0,  -20.8,  999.0,  999.0,  999.0,  -21.0,  -21.2,  -31.0,  999.0,  999.0,  999.0,  -39.7,  999.0,  -42.5,  -42.5,  -42.0,  -42.0,  -42.0,  -42.0,  -42.1,  -41.7,  -42.1,  -41.4,  -41.9,  -41.7,  -41.5,  -42.4,  -42.5,  -41.6,  -41.9,  -41.2,  -41.9,  -41.7,  -42.0,  -41.7,  999.0,  -42.0,  -42.2,  -41.9,  -42.2,  -42.2,  -42.2,  -41.9,  -41.3,  -42.0,  -42.2
2000/11/06 09:10,  999.0,   -2.8,   -0.8,   -0.6,   -0.1,    1.2,   -0.3,    1.2,  999.0,   -3.9,   -5.5,   -0.4,  999.0,  999.0,  999.0,  999.0,  -25.0,  999.0,  -29.7,  -33.7,  -35.0,  -32.6,  -36.1,  -36.4,  -34.8,  -39.3,  -39.9,  -41.7,  -41.7,  -41.4,  -41.9,  -41.7,  -41.8,  -41.6,  -41.9,  -42.3,  -41.8,  -42.1,  -42.0,  -41.9,  -41.7,  -42.1,  -41.7,  -41.4,  -41.6,  -42.1,  -42.3,  -41.5,  -41.8,  -41.5,  -41.3,  -41.7,  -41.4,  -41.7,  -42.0,  -41.3,  -41.9,  -42.1
2000/11/06 09:20,  999.0,   -1.3,   -1.2,   -1.1,   -1.4,   -1.2,   -0.6,   -0.1,  999.0,   -1.4,  999.0,  999.0,  999.0,  999.0,  999.0,  999.0,  -21.9,  -22.8,  -23.4,  -25.3,  -27.5,  -28.9,  -30.8,  999.0,  -34.2,  -35.3,  999.0,  -35.7,  -40.1,  -39.6,  -40.9,  -41.2,  -41.4,  -41.8,  -41.5,  -41.4,  -41.3,  -41.8,  -41.8,  -41.9,  -41.8,  -41.7,  -41.3,  -41.6,  -41.0,  -41.5,  -41.8,  -41.6,  -41.3,  -42.1,  -42.2,  -42.4,  -43.6,  -43.1,  -41.8,  -41.7,  -41.9,  -42.1
2000/11/06 09:30,  999.0,   -1.5,   -1.5,   -2.0,   -1.5,   -1.1,   -6.0,   -7.9,  999.0,   -2.7,  999.0,  999.0,  -13.8,  -14.3,  -21.1,  -21.7,  -22.5,  -23.8,  -22.2,  -28.3,  -30.1,  -30.8,  -32.4,  -34.3,  -36.0,  -37.7,  -39.4,  -41.0,  -42.3,  -41.7,  -42.0,  -41.9,  -41.9,  -42.0,  -41.9,  -41.8,  -41.8,  -42.2,  -42.3,  -41.7,  -42.1,  -42.1,  -41.9,  -42.0,  -41.9,  -41.4,  -41.9,  -42.0,  -42.1,  -42.2,  -41.9,  -41.7,  -41.1,  -41.8,  -41.7,  -41.8,  -41.6,  -42.1
2000/11/06 09:40,  999.0,   -1.1,   -1.3,   -2.8,   -2.4,   -2.4,    1.3,    4.2,  999.0,   -5.1,  999.0,  999.0,  999.0,   -3.9,  999.0,  -22.6,  -26.0,  -30.2,  -30.7,  -31.0,  -32.7,  -35.8,  -36.1,  999.0,  -39.5,  -41.2,  -41.6,  -41.6,  -41.7,  -41.6,  -41.6,  -41.6,  -41.8,  -41.7,  -41.6,  -42.0,  -41.8,  -41.9,  -41.3,  -41.4,  -41.8,  -41.7,  -41.4,  -41.7,  -41.6,  -41.4,  -41.5,  -41.6,  -41.7,  -42.4,  -41.3,  -42.2,  -42.1,  -42.0,  -41.6,  -41.7,  -41.5,  -41.8
2000/11/06 09:50,  999.0,    1.6,    1.2,   -0.8,   -2.2,    1.2,    1.2,    1.8,   -0.7,    1.1,  999.0,  999.0,   -0.5,   -1.6,  -26.1,  -27.0,  999.0,  999.0,  -24.0,  999.0,  999.0,  999.0,  -38.7,  999.0,  999.0,  -41.5,  999.0,  -41.5,  -41.7,  -42.0,  999.0,  999.0,  999.0,  999.0,  999.0,  999.0,  999.0,  999.0,  -41.5,  999.0,  -41.8,  -41.7,  -41.8,  -42.2,  -41.8,  -42.7,  -41.9,  -41.8,  -42.4,  999.0,  999.0,  -41.7,  -41.4,  -41.9,  -42.2,  -41.6,  999.0,  999.0
2000/11/06 10:00,  999.0,   -2.0,   -5.6,   -3.1,   -1.7,    8.5,   -3.3,   -0.6,   -1.5,   -3.8,   -3.8,  999.0,  999.0,  999.0,  999.0,  999.0,  999.0,  999.0,  999.0,  999.0,  999.0,  999.0,  999.0,  999.0,  999.0,  999.0,  999.0,  999.0,  999.0,  999.0,  999.0,  999.0,  999.0,  -41.7,  999.0,  999.0,  999.0,  999.0,  999.0,  -41.8,  -41.4,  -41.5,  999.0,  999.0,  -42.1,  -42.1,  -41.7,  -41.6,  -41.9,  -42.3,  -42.1,  999.0,  -41.8,  -42.2,  999.0,  999.0,  999.0,  -41.5
2000/11/06 10:10,  999.0,   -2.0,   -1.2,   -0.1,   -1.3,    0.3,   -1.3,   -0.7,   -2.6,   -0.9,  999.0,  999.0,  999.0,  999.0,  999.0,  999.0,  -20.5,  -20.7,  -22.0,  999.0,  999.0,  999.0,  999.0,  -24.8,  999.0,  999.0,  -27.6,  -28.3,  -28.7,  -29.2,  -30.0,  999.0,  999.0,  -31.5,  -32.5,  -33.5,  -33.4,  -34.5,  999.0,  999.0,  999.0,  999.0,  999.0,  999.0,  999.0,  999.0,  999.0,  -41.5,  999.0,  999.0,  999.0,  999.0,  999.0,  -41.8,  -41.4,  999.0,  999.0,  999.0
2000/11/06 10:20,  999.0,    0.3,   -1.0,   -4.6,    1.0,   -2.8,   -3.8,    0.1,    0.3,   -1.4,   -0.8,   -0.9,  999.0,  999.0,  -21.0,  999.0,  999.0,  999.0,  -23.7,  -27.6,  999.0,  -29.4,  -26.7,  999.0,  -28.1,  -35.6,  -29.9,  -34.8,  -32.0,  999.0,  -42.6,  999.0,  999.0,  999.0,  999.0,  999.0,  999.0,  999.0,  999.0,  999.0,  999.0,  999.0,  999.0,  999.0,  999.0,  999.0,  999.0,  999.0,  999.0,  999.0,  999.0,  999.0,  999.0,  999.0,  999.0,  999.0,  999.0,  999.0
2000/11/06 10:30,  999.0,   -0.2,   -0.5,   -0.8,   -0.5,    0.9,    0.2,   -2.1,   -2.9,   -2.8,  999.0,  999.0,  -21.5,  -21.3,  -21.8,  -21.3,  -21.5,  -21.0,  -21.3,  -21.3,  -20.4,  999.0,  -23.6,  -20.9,  -21.2,  -21.0,  -21.7,  -21.9,  999.0,  999.0,  999.0,  999.0,  999.0,  999.0,  999.0,  999.0,  999.0,  999.0,  999.0,  999.0,  999.0,  999.0,  999.0,  999.0,  999.0,  999.0,  999.0,  999.0,  999.0,   37.6,   38.2,  999.0,   39.2,   40.0,  999.0,  999.0,   40.7,   41.6
2000/11/06 10:40,  999.0,   -5.3,   -0.9,   -2.1,   -1.0,  999.0,   -0.3,   -1.2,   -1.7,   -4.1,   -1.9,   -0.9,  -20.4,  -21.1,  -21.6,  -20.6,  -21.4,  -19.6,  -20.7,  -18.8,  -18.2,  -20.0,  -17.0,  -21.8,  -22.1,  -21.6,  -15.1,  999.0,  -13.5,  999.0,  999.0,  999.0,  999.0,  999.0,  999.0,  999.0,  999.0,  999.0,  999.0,  999.0,  999.0,  999.0,  999.0,  999.0,  999.0,  999.0,   19.8,  999.0,   39.3,   27.0,   23.9,   40.4,   28.4,   34.4,   41.2,   41.3,   39.3,   41.8
2000/11/06 10:50,  999.0,    3.0,  999.0,    0.9,  999.0,  999.0,   -4.4,   -3.4,   -3.6,   -2.1,   -1.7,   -1.5,  -19.8,  -21.4,  -21.5,  -22.5,  -23.4,  999.0,  -27.5,  -26.9,  -27.5,  -28.8,  -30.1,  -31.1,  999.0,  -29.3,  -29.5,  999.0,  -31.1,  999.0,  -32.2,  999.0,  -33.4,  -33.7,  -34.7,  -35.3,  999.0,  999.0,  999.0,  999.0,  -38.7,  -39.6,  -40.3,  999.0,  999.0,    3.1,   10.0,   32.1,   17.9,   30.6,   41.3,   21.0,   21.4,  999.0,    1.8,   42.3,   28.4,   41.6
2000/11/06 11:00,  999.0,  999.0,   -0.7,    0.0,    0.4,   -0.9,   -1.5,   -3.0,   -5.4,   -1.6,   -2.0,   -3.4,   -2.6,   -3.0,  999.0,  999.0,  -16.4,  999.0,  -15.1,  -14.2,  -13.2,  -12.3,  -10.9,   -9.9,   -8.4,   -7.6,  999.0,   -5.2,   -3.9,  -34.3,  -21.5,  -41.8,  -14.5,   -1.1,  -14.2,  -10.0,   -4.7,   -0.8,   -0.9,   -7.9,   -1.2,   -8.7,  -11.1,  999.0,  999.0,  999.0,  999.0,  999.0,  999.0,  999.0,  999.0,  999.0,  999.0,  999.0,  999.0,  999.0,  999.0,  999.0
2000/11/06 11:10,  999.0,   -1.7,   -2.8,   -3.0,   -0.6,   -0.4,   -2.6,   -2.0,   -1.5,   -1.2,   -2.1,   -1.5,   -2.2,   -3.4,  -22.8,  999.0,  999.0,  999.0,  999.0,  999.0,  999.0,  999.0,   -8.6,  999.0,  999.0,   -3.7,   -1.0,   -0.7,   -0.4,   -0.5,  -17.9,   -0.3,  999.0,   -0.4,  -13.4,  -14.2,  -39.5,  -17.0,   -5.4,  -11.1,  -11.2,  -29.0,  -18.0,  -22.7,  -22.0,  -22.3,  -22.6,  -20.0,  -22.4,  -12.3,  999.0,  999.0,  999.0,  -30.9,  999.0,  999.0,  999.0,  -38.2
2000/11/06 11:20,  999.0,    1.0,   -1.2,   -0.5,   -1.7,   -1.0,   -0.8,   -0.6,   -1.2,   -1.1,   -2.4,   -2.8,   -2.6,  999.0,  -17.9,  -10.3,  999.0,  -13.0,  -20.4,  -16.4,  -19.7,  -19.9,   -3.3,   -1.2,  -14.2,   -0.7,   -0.5,   -0.6,   -1.5,   -0.8,   -0.5,   -0.8,   -0.9,   -0.1,   -1.6,   -0.6,   -1.0,   -0.9,   -0.8,   -2.0,  999.0,   -1.6,  999.0,  999.0,   -1.0,   -1.0,  999.0,   -1.0,  999.0,   -1.0,   42.4,  999.0,   -0.6,   -0.8,   -0.6,  999.0,   42.2,   -0.7
2000/11/06 11:30,  999.0,    1.1,    0.1,   -0.4,   -0.8,   -2.0,   -0.9,   -0.4,   -0.8,   -1.9,   -1.3,   -2.6,   -3.5,   -4.9,  -21.9,  -20.0,  999.0,  999.0,   -6.9,   -3.5,   -1.6,   -0.8,   -0.8,   -0.9,   -0.7,   -0.5,   -0.6,  999.0,   -0.1,   -0.8,   -0.4,   -0.3,   -1.3,   -0.4,   -0.7,   -0.7,   -0.8,   -0.8,   -0.9,   -1.0,   -1.0,   -0.7,  999.0,  999.0,  999.0,  999.0,  999.0,   42.2,  999.0,   41.4,  999.0,   42.1,  999.0,   41.7,   42.1,   33.4,   30.8,  999.0
2000/11/06 11:40,  999.0,    2.1,    1.3,    2.5,    3.5,    1.2,    2.1,    0.8,    0.4,    0.0,    0.6,   -0.8,   -1.7,   -4.8,  -19.8,  -15.6,  -12.3,   -8.9,   -9.0,  -10.6,   -3.9,   -0.6,   -0.7,   -0.7,   -0.7,   -0.3,   -0.6,   -0.9,   -0.8,   -0.7,   -1.0,   -1.0,   -0.9,   -0.9,   -0.5,   -0.4,   -1.1,   -1.4,   -0.2,   -0.5,   -0.5,  999.0,  999.0,   -0.9,  999.0,   41.8,  999.0,   41.7,   42.2,   42.4,   42.3,   42.0,   42.1,   42.0,   42.2,   41.9,   41.7,   42.1
2000/11/06 11:50,  999.0,   -2.0,    2.3,    1.4,   -1.4,   -0.5,    1.2,    4.5,   -0.8,   -0.2,  999.0,  999.0,  999.0,  999.0,  999.0,  -14.4,  -15.5,  -11.0,   -9.8,   -6.9,   -3.9,   -1.1,   -1.1,   -0.9,   -0.6,   -0.5,   -0.6,   -0.8,   -0.7,   -1.2,   -0.8,   -1.0,   -0.7,   -0.9,   -0.9,    3.9,  999.0,  999.0,  999.0,  999.0,  999.0,  999.0,  999.0,  999.0,   42.2,  999.0,   41.9,  999.0,   42.3,   41.8,   41.6,   42.1,   42.1,   41.7,   42.5,   41.6,   42.5,   42.1
2000/11/06 12:00,  999.0,    0.7,    0.9,    0.9,    0.8,    1.0,   10.1,    0.5,   -0.5,   -0.9,  999.0,  -11.4,  999.0,   -4.9,  -13.3,  -13.6,  -20.3,  999.0,  999.0,   13.2,    1.5,   -4.0,   -0.8,   -1.0,   -1.1,   -1.1,  999.0,   -0.5,   -0.9,   -0.7,   -1.0,   -0.8,   -0.7,   -0.8,   -0.6,   -0.7,   -0.7,  999.0,  999.0,  999.0,  999.0,  999.0,  999.0,  999.0,  999.0,  999.0,   41.8,   42.0,   42.2,   42.1,   41.8,   41.9,   42.4,   41.8,   41.9,   41.8,   41.6,   41.5
2000/11/06 12:10,  999.0,  999.0,   22.7,   21.8,   22.1,   22.2,   18.3,   19.0,  999.0,  999.0,  999.0,   21.4,   20.7,   21.2,   21.0,   20.3,   18.6,   17.5,   15.8,   14.1,    8.2,   11.4,    9.7,    8.2,  999.0,  999.0,  999.0,  999.0,    0.8,    0.8,    0.8,    0.9,    0.9,    0.9,  999.0,    1.8,  -11.8,  -10.1,    3.6,   10.3,   12.4,   11.9,   17.2,   19.1,   21.5,   23.7,   26.7,   29.3,   31.0,   38.0,   37.6,   33.3,   38.5,   40.4,   40.5,   41.9,   42.1,   41.5
2000/11/06 12:20,  999.0,   -7.8,    3.4,   11.7,    9.1,   -2.8,   -5.7,   -6.1,  -10.0,   -9.5,   -5.0,   -6.3,   -8.7,   -2.5,   -2.7,   -4.0,   -0.4,   -4.0,   -2.1,    6.3,    3.7,    6.5,   -0.4,    7.3,   -0.6,   -3.5,   -5.6,   -8.5,    0.8,   -8.5,   -8.5,  -13.2,   -0.9,   -7.3,  -18.7,   -8.2,    1.0,  -13.3,  999.0,  -15.7,  999.0,  -11.1,  -12.1,  -11.3,  -10.1,  -12.2,   -8.8,   -7.3,   -5.6,   -5.7,  999.0,  999.0,  999.0,  999.0,  999.0,  999.0,  999.0,  999.0
2000/11/06 12:30,  999.0,    0.8,   -0.5,    0.6,    0.4,   -0.2,    1.9,    2.4,    1.2,    0.7,    3.7,   -0.1,   -0.9,   -0.9,   -2.0,   -2.2,   -2.3,   -2.1,   -2.9,   -5.0,   -4.1,   -2.7,   -1.6,   -4.7,   -7.0,   -8.0,   -2.4,   -2.6,   -3.8,   -2.6,   -6.0,   -1.8,   -2.0,   -3.9,   -4.1,   -1.3,   -2.4,   -4.0,   -3.1,   -7.4,   -8.6,   -7.6,   -6.1,  -13.3,  999.0,  999.0,  999.0,  999.0,  999.0,  999.0,  999.0,  999.0,  999.0,  999.0,  999.0,  999.0,  999.0,  999.0
2000/11/06 12:40,  999.0,   -0.3,    0.4,    1.0,   -1.8,   -1.5,   -1.1,   -1.0,   -0.8,    0.1,    0.5,    0.8,    0.1,    0.9,    0.2,    0.9,    0.2,   -1.5,   -3.6,   -4.0,   -3.8,   -2.7,   -2.0,   -3.0,   -3.6,   -3.9,   -4.6,   -5.5,   -6.5,  -11.1,   -9.4,   -5.8,   -5.7,   -5.2,   -3.8,   -3.5,   -2.8,   -3.5,   -4.7,  -10.5,   -7.2,   -6.1,   -7.1,   -4.5,   -1.4,   -0.9,   -1.3,   -1.2,    0.1,   -2.9,    1.7,    2.5,    4.7,   -0.3,  999.0,    0.0,  999.0,   -0.9
2000/11/06 12:50,  999.0,   -1.3,   -2.7,   -2.5,   -1.8,    0.5,    1.7,    1.1,    0.3,   -0.3,   -0.7,   -2.7,   -3.2,   -4.1,   -2.8,   -4.0,   -4.8,   -5.7,   -4.9,   -4.2,   -3.5,   -2.9,   -2.0,   -1.6,   -1.7,   -2.0,   -1.8,   -2.5,   -2.4,   -2.7,   -3.5,   -1.7,   -2.0,   -2.5,   -1.6,   -1.0,   -0.6,   -1.8,   -0.8,    0.3,    2.2,    1.3,   -1.7,    0.3,    3.8,    3.4,    1.8,    0.6,    0.8,    0.5,   -1.6,   -0.9,   -0.2,   -4.9,   -3.9,   -3.0,   -3.7,    0.7
2000/11/06 13:00,  999.0,   -2.1,   -0.0,    0.6,    1.2,   -1.3,   -0.6,    0.8,    1.6,   -1.1,   -0.4,   -0.9,   -1.2,   -1.9,   -2.5,   -2.5,   -2.0,   -2.0,   -2.2,   -2.3,   -2.2,   -1.4,   -1.0,   -0.8,   -0.6,   -1.3,   -2.1,   -2.0,   -2.2,   -2.2,   -5.6,   -5.3,   -3.5,   -1.5,    0.1,    0.5,   -0.5,    0.5,   -0.1,   -0.9,   -0.5,   -1.0,   -0.7,    0.7,   -1.6,   -3.0,   -1.8,   -1.8,   -1.5,   -1.4,   -1.1,   -0.9,   -0.6,    0.5,    0.1,    0.1,   -0.4,   -0.6
2000/11/06 13:10,   -0.6,  999.0,  999.0,  999.0,   -0.5,   -0.6,   -0.4,   -0.9,  999.0,  999.0,   -1.1,    0.1,   -0.9,    0.0,   -0.2,   -0.6,   -0.4,   -0.5,   -2.8,   -0.9,   -3.3,   -4.2,   -7.6,   -1.0,  999.0,   -4.3,   -7.8,   -5.1,   -3.5,   -7.8,   -3.8,   -3.4,   -2.3,   -2.3,   -2.5,   -1.0,   -1.1,   -1.0,   -0.9,   -0.5,   -0.2,  999.0,   -0.8,   -1.3,   -0.8,   -0.7,   -0.8,   -1.0,   -0.5,   -0.8,   -1.2,   -0.5,  999.0,   -0.8,   -0.8,  999.0,   -0.6,   -1.2
2000/11/06 13:20,   -0.8,   -0.2,    2.0,  999.0,    2.6,  999.0,  999.0,  999.0,  999.0,  999.0,   -0.7,   -0.0,   -3.8,  999.0,    4.8,   -3.0,   -2.6,   -2.1,   -1.2,   -0.5,  999.0,   -1.0,   -0.8,   -0.3,   -0.4,   -0.3,   -0.1,   -1.0,   -0.7,   -0.4,   -0.7,   -1.3,   -0.9,   -0.9,   -0.6,   -0.9,   -1.0,   -0.8,   -0.8,   -0.5,   -0.2,   -1.7,   -1.1,   -0.8,   -0.8,   -1.1,   -0.8,   -1.0,   -2.6,   -3.2,   -0.2,   -8.7,   -0.4,   -8.6,   -1.0,  -10.7,  -12.0,  -13.0
2000/11/06 13:30,   -0.8,   -0.7,  999.0,   23.6,  999.0,   20.8,  999.0,  999.0,  999.0,  999.0,   -0.9,   -1.0,  999.0,   -1.0,   -1.2,   -1.2,   -1.5,   -0.9,   -1.0,   -1.1,   -1.0,   -1.0,   -0.7,   -0.9,   -1.1,  999.0,   -1.0,   -0.8,   -0.8,   -0.9,   -0.7,   -0.6,   -0.8,   -0.9,   -0.9,   -0.9,  999.0,   -1.1,   -0.1,    0.1,   -0.7,   -0.6,   -0.6,   -0.7,   -0.6,   -1.0,   -0.8,   -0.4,   -0.9,   -0.7,   -0.7,   -0.9,   -1.0,   -1.0,   -0.7,   -0.7,   -0.9,   -1.0
2000/11/06 13:40,  999.0,   -1.7,   -1.2,   -1.6,   -0.6,   -1.3,   -1.0,   -0.8,    1.7,  999.0,  999.0,  999.0,  999.0,  999.0,  999.0,  999.0,   -6.7,  -15.4,  999.0,  -17.3,  -18.0,  -17.9,  -17.9,  -18.1,  -18.6,  -12.4,  -12.9,    1.2,   -0.3,  -14.0,  -14.0,  -13.9,   -0.8,   -0.7,   -0.6,   -0.5,   -0.6,   -0.8,  -14.7,  999.0,  -16.9,  -18.3,  -29.1,  -20.9,   -0.7,  -41.5,  -21.3,  -19.4,  -28.1,   -0.7,  -21.1,  -21.3,   -0.8,   -1.5,  -11.2,   -5.7,   -0.6,   -0.8
2000/11/06 13:50,  999.0,    0.7,   -1.5,   -2.1,   -1.3,   -0.2,   -0.9,   -0.2,   -0.2,    1.1,   -7.0,   -8.2,   -7.6,   -7.3,   -9.0,   -9.1,   -8.0,  999.0,  999.0,  -14.5,  -12.9,  -12.2,   -8.8,   -9.1,   -6.3,   -4.9,   -0.7,   -1.5,   -1.2,   -0.7,   -0.4,   -1.1,   -0.7,   -0.8,   -0.6,   -0.8,   -1.0,   -0.5,   -0.8,   -0.8,   -0.6,    0.1,   -0.8,   -0.4,   -0.4,   -0.4,   -0.9,   -0.7,   -1.0,   -1.2,  999.0,   -0.4,  999.0,  999.0,  999.0,  999.0,  999.0,  999.0
2000/11/06 14:00,  999.0,  999.0,  999.0,  999.0,   -0.7,    0.7,   -0.4,   -0.2,    0.3,    1.1,  999.0,  999.0,  999.0,  999.0,  999.0,  999.0,  999.0,  -16.2,  -14.0,  -12.8,  -11.0,   -8.6,   -6.7,   -4.9,   -2.7,   -0.5,   -0.0,   -0.9,   -0.6,   -0.8,   -0.8,   -0.0,   -0.9,   -0.9,   -0.9,   -0.7,   -1.0,   -1.1,   -0.8,   -0.4,   -0.3,   -0.6,   -0.4,   -0.3,   -0.8,   -0.8,  999.0,  999.0,  999.0,  999.0,   -0.5,  999.0,  999.0,  999.0,   -0.7,   -0.3,   -1.0,   -0.4
2000/11/06 14:10,  999.0,  999.0,   -1.2,    0.6,   -0.4,   -2.4,    0.1,   -3.3,  999.0,  999.0,  999.0,  999.0,  999.0,  999.0,  -16.7,  999.0,  -19.5,  -17.1,  -14.7,  -14.4,  -12.8,   -9.7,   -9.6,   -7.8,   -6.6,   -4.6,   -3.5,   -2.3,   -0.7,   -0.6,   -1.0,   -0.9,   -0.3,   -0.6,   -0.6,   -1.1,   -1.2,   -0.6,   -0.8,   -0.9,   -1.2,   -0.9,   -0.7,   -1.1,   -0.8,   -1.0,   -0.8,   -0.6,   -1.0,   -0.3,   -0.7,   -0.8,   -0.5,   -0.3,   -0.5,   -0.6,   -0.5,   -0.8
2000/11/06 14:20,  999.0,    0.2,   -0.6,    0.2,   -0.0,   -0.4,   -0.1,   -0.8,    0.2,    0.3,  999.0,  999.0,  999.0,  999.0,  -21.1,  -20.8,  -19.5,  -18.8,  -17.4,  -16.8,  -15.0,  -15.2,  -10.5,  -13.4,   -7.4,   -6.3,  999.0,   -3.0,   -2.0,   -7.2,   -3.8,   -3.6,   -0.9,   -3.5,   -2.1,   -0.9,   -0.6,   -1.1,   -1.1,   -0.6,   -0.6,   -1.0,  999.0,   -1.1,   -0.8,   -0.9,   -1.2,  999.0,   -0.6,   -0.9,  999.0,   13.2,   20.8,   10.2,   20.3,   42.7,   -0.7,   41.6
2000/11/06 14:30,  999.0,   -1.1,   -0.2,   -0.1,    0.4,    0.2,    0.4,   -0.1,    0.8,    1.5,  999.0,  999.0,  999.0,  999.0,  -21.8,  -20.8,  -19.9,  -20.1,  -18.2,  -16.3,  -14.9,  -13.8,  -11.9,  -11.7,  -10.3,   -8.0,   -6.7,   -6.7,   -4.3,   -2.6,   -2.2,   -1.0,   -1.0,   -0.3,   -0.3,   -0.8,   -1.1,   -0.6,   -0.7,   -0.7,   -1.2,   -1.2,   -0.6,   -0.5,   -1.1,   -0.8,   -0.9,   -0.6,    0.1,   -1.2,   -0.9,   -0.1,   -1.1,   -0.6,   -0.7,   -1.1,   -1.1,   -0.4
2000/11/06 14:40,  999.0,    0.1,   -1.3,   -0.4,    0.1,   -0.4,   -0.5,   -0.1,  999.0,  999.0,  999.0,  999.0,  999.0,  999.0,  999.0,  999.0,  -21.2,  999.0,  -16.1,  -13.8,  -12.9,  -10.5,   -9.6,   -7.6,   -5.9,   -4.6,   -2.5,   -1.0,   -0.9,   -1.0,   -0.6,   -0.9,   -0.8,   -1.1,   -0.6,   -0.9,   -0.9,   -0.5,   -0.7,   -0.9,   -0.7,   -1.1,   -0.9,   -0.4,    0.1,  999.0,   -0.8,   -0.7,   -0.9,   -0.5,   -0.3,   -1.0,   -0.5,   -0.4,   -0.3,   -0.2,   -0.9,   -0.2
2000/11/06 14:50,  999.0,   -0.3,   -1.5,   -0.5,   -1.0,   -0.5,   -0.2,   -0.1,   -0.7,    0.0,  999.0,  999.0,  999.0,  999.0,  999.0,  -20.9,  -20.4,  -18.3,  -17.9,  -14.9,  -13.7,  -10.3,   -6.7,   -8.5,   -2.7,   -2.5,   -4.8,   -4.4,   -0.4,   -0.7,   -1.9,   -1.9,   -0.6,   -0.9,   -0.8,   -1.2,   -0.1,   -0.4,   -0.1,   -1.5,   -0.2,  999.0,   -1.0,   -0.5,  999.0,   -0.8,   -0.9,   -0.7,   -0.7,   -1.2,   -1.1,   20.6,   20.9,   20.8,   28.0,   -0.4,   27.6,   -0.8
2000/11/06 15:00,  999.0,    0.3,   -0.1,   -0.5,   -0.6,   -0.9,   -0.1,    1.4,    0.7,    1.6,  999.0,  999.0,  999.0,  999.0,  999.0,  999.0,  999.0,  -20.4,  999.0,  -15.7,  -14.1,  -13.5,  -14.8,  -10.4,  -15.6,   -7.4,   -6.5,   -5.1,  -13.4,   -1.2,   -0.9,   -1.3,   -0.7,  999.0,   -0.6,   -0.4,  -14.4,  999.0,  -14.2,   -0.5,  -10.8,   -5.8,   -0.6,   -0.8,   -1.2,   -1.2,   -0.7,   -1.1,   -0.8,   -1.2,   -1.0,   -1.3,    9.8,   -0.2,   13.4,   -0.9,   -0.9,    6.2
2000/11/06 15:10,  999.0,  999.0,   -1.9,   -2.1,   -0.9,   -2.3,   -0.7,    0.4,    0.5,    1.1,  999.0,  999.0,  999.0,  999.0,  999.0,  999.0,  999.0,  999.0,  -15.3,  -13.9,  -11.9,  -10.6,  -31.7,  -16.4,  -15.6,  -19.6,  -14.4,  -13.7,   -1.6,  -39.7,   -0.7,   -0.7,   -4.6,   -0.4,   -0.8,   -0.1,   -0.6,   -2.9,  -13.4,   -0.3,   -0.9,  -21.3,    0.1,   -1.3,  -21.3,  999.0,  -14.4,   -0.6,  -21.0,   -0.7,  -42.0,  -21.3,   -0.7,   -1.4,  999.0,   -0.8,   11.5,  999.0
2000/11/06 15:20,  999.0,  999.0,  999.0,  999.0,  999.0,  999.0,   -2.2,   -1.7,   -0.9,   -0.5,  999.0,  999.0,  999.0,  999.0,  999.0,  999.0,  999.0,  999.0,  999.0,  999.0,  -11.6,  999.0,   -9.8,   -7.9,  999.0,   -5.2,   -3.6,   -0.7,   -2.4,   -2.3,   -1.0,   -0.5,  999.0,   -1.1,   -0.9,   -0.9,   -6.0,   -5.3,   -1.2,   -0.7,   -0.8,   -1.0,   -0.8,   -0.6,   -1.5,   -0.8,   -0.8,    0.1,   -0.6,   -0.3,   -0.6,    3.6,    1.5,   -0.0,    1.2,   20.4,   -0.6,   -0.8
2000/11/06 15:30,  999.0,  999.0,  999.0,  999.0,  999.0,  999.0,  999.0,  999.0,  999.0,    0.7,    0.4,   -0.1,  999.0,   -6.0,  999.0,  999.0,  999.0,  999.0,  999.0,  999.0,  999.0,  -12.1,   -5.1,   -4.7,   -2.5,   -2.7,   -1.4,   -0.7,   -0.2,   -0.8,   -0.8,   -0.4,   -0.6,   -0.8,   -0.9,   -1.0,   -0.6,   -1.1,   -0.8,   -0.5,   -0.6,   -0.4,   -0.4,   -1.0,   -0.8,   -1.2,   -0.2,   -0.9,   -0.7,   -1.1,   -0.7,   -0.7,   -0.5,   -0.7,  -14.1,   -0.7,   -0.5,  -13.8
2000/11/06 15:40,  999.0,  999.0,  999.0,  999.0,   -0.4,   -0.6,   -1.0,   -1.3,    0.1,  999.0,    1.9,  999.0,  999.0,  999.0,  999.0,  999.0,  999.0,  -16.1,  -16.8,  -14.4,  -13.0,  -12.0,   -8.5,   -6.8,   -7.5,   -3.1,   -3.4,   -1.1,   -0.6,   -0.7,   -0.4,   -0.6,   -1.0,   -0.6,   -0.9,  999.0,   -0.7,   -0.0,   -0.9,   -0.9,   -0.5,   -1.0,   -1.2,   -0.8,   -0.3,   -0.5,   -0.3,   -0.6,   -0.3,   -0.8,   -1.4,   -0.6,   -0.6,   -0.9,   -0.4,   -1.0,   -0.5,   -0.8
2000/11/06 15:50,  999.0,  999.0,  999.0,  999.0,   -0.8,   -1.1,   -0.7,   -0.3,    0.2,   -0.1,  999.0,  999.0,  999.0,  999.0,  999.0,  999.0,  -18.6,  -17.2,  -15.2,  -14.3,  -11.8,   -9.8,   -7.9,   -5.4,   -4.6,   -3.3,   -2.4,   -1.3,   -0.6,   -0.3,   -0.9,   -0.9,   -0.6,   -0.9,   -0.8,   -0.8,   -0.9,   -0.8,   -1.0,   -1.0,   -0.8,   -0.3,   -0.4,   -0.8,   -0.7,   -0.7,   -0.6,   -0.6,   -0.6,   -0.8,   -0.6,   -0.5,   -0.5,   -0.4,   -0.6,   -0.7,  999.0,   -0.4
2000/11/06 16:00,  999.0,  -10.6,   -4.9,    0.1,   -0.3,   -0.1,   -0.0,    0.8,    1.2,  999.0,   21.0,  999.0,   -0.4,   21.7,  -21.5,  -22.0,   25.6,   -0.1,  -29.4,  -13.6,  -11.1,  999.0,  -22.5,   -1.2,   -3.2,  -14.1,   -0.6,  -21.2,  -14.3,  -14.2,  -21.3,  -21.1,   -3.5,   -0.3,   -0.6,   -0.7,   -5.7,   -2.7,   -7.3,  -10.1,   -2.5,   -8.5,    9.8,   12.2,   -9.6,   -0.4,  -19.7,    3.6,  -15.9,   -0.5,  -17.5,  -26.6,   -6.2,   -7.2,  -15.5,  -14.7,  -21.3,  -14.8
2000/11/06 16:10,  999.0,    0.3,    0.3,    0.0,   -0.7,   -0.5,    0.2,    0.6,  999.0,  999.0,  999.0,  999.0,  999.0,  999.0,  999.0,  999.0,  999.0,  999.0,  -12.2,  -10.8,   -8.7,  999.0,  999.0,   -2.6,   -1.1,   -0.6,   -1.6,   -0.9,   -0.9,   -0.7,   -0.8,   -0.6,   -0.6,   -1.1,   -0.6,   -0.8,   -0.7,   -0.8,   -0.6,   -0.4,   -0.9,   -0.9,   -0.7,   -0.5,   -0.9,   -1.0,   -0.6,   -0.8,   -1.1,   -0.7,   -1.1,   -1.2,   -0.7,   -1.0,  999.0,   -0.9,   -0.5,   -0.3
2000/11/06 16:20,  999.0,  -10.4,   -6.9,   -0.4,    0.5,   -0.1,    0.7,   -0.0,  999.0,  999.0,  999.0,  999.0,   -0.0,  999.0,  -21.0,  -20.2,  -19.6,  -19.5,  999.0,  -18.4,  999.0,  -12.0,   -7.7,   -7.1,   -4.5,  999.0,   -2.2,   -0.5,   -0.6,   -1.3,   -0.4,   -0.8,   -0.3,   -0.4,   -0.6,   -1.1,   -0.8,   -0.8,   -0.8,   -1.5,   -1.0,   -0.4,   -0.8,   41.4,   -0.4,   -0.5,   20.9,   -0.1,   -0.9,   -0.8,   -1.1,   -1.1,  999.0,   -1.4,   -1.0,   -0.7,    3.1,   -0.8
2000/11/06 16:30,  999.0,   -0.3,    0.2,   -0.6,    0.5,    0.5,   -0.1,   -0.4,   -0.2,  999.0,  999.0,  999.0,  999.0,  999.0,  999.0,  999.0,  999.0,    2.0,    3.7,  -11.6,    4.8,    0.5,    5.8,   -4.1,    3.5,  999.0,  -14.2,   -0.9,   13.0,    3.6,   -0.9,  -11.0,    4.5,   10.4,    9.3,    2.3,    2.3,    2.9,   -1.2,    1.6,    2.8,  -13.1,   -0.6,    1.3,  -20.7,    0.2,  -14.4,   -0.6,   -7.2,  -10.6,    0.2,   -0.6,    3.0,    4.1,    3.4,   -3.1,    4.7,   -0.7
2000/11/06 16:40,  999.0,   -1.7,   -0.2,    0.5,    0.7,   -0.5,  999.0,    0.2,    1.4,    0.2,  999.0,   21.5,   20.5,  999.0,   21.0,   22.0,   23.4,   25.2,   29.4,   24.1,   34.5,  999.0,  999.0,   37.6,    2.2,  999.0,  999.0,   42.1,    2.5,  999.0,   15.5,    9.0,    2.6,  999.0,    1.0,    0.3,  999.0,    0.4,    0.8,    0.9,  999.0,    0.4,  999.0,    0.8,  999.0,    0.7,  999.0,  999.0,  999.0,   -0.3,   -0.2,    0.2,  -10.6,    0.8,  -21.6,   -0.3,   -0.4,    0.1
2000/11/06 16:50,  999.0,  999.0,    0.3,    0.7,    0.3,   -0.1,    0.1,    0.3,    3.7,  999.0,    0.3,  999.0,  999.0,  999.0,  -21.1,  -18.6,  -17.7,  -18.7,  -16.4,  999.0,  999.0,  -12.3,  -15.5,  -11.9,  -14.2,  -12.8,  -12.4,   -7.6,   -4.5,   -6.7,  -11.5,   -0.9,   -5.4,   -4.0,   -2.3,   -8.7,   -7.9,   -7.2,  999.0,   -6.0,   -5.1,   41.7,  999.0,   41.4,   -3.3,   42.3,  999.0,   -0.4,  999.0,   42.0,   -0.6,  999.0,   41.8,   41.3,   41.6,   20.3,   21.0,   -0.8
2000/11/06 17:00,  999.0,   -0.2,    0.2,   -0.1,   -0.4,    0.1,    1.1,    1.9,    3.9,  999.0,    2.6,  999.0,  999.0,  999.0,  999.0,  999.0,  999.0,  -19.8,  -18.9,  -17.4,  -15.9,  -15.2,  -14.7,  999.0,  -12.9,  -11.2,   -8.9,  -12.7,   -9.3,   -5.1,  999.0,   -4.1,   -4.8,   -0.7,   -0.9,  999.0,   -0.6,  999.0,  999.0,  999.0,  999.0,  999.0,  999.0,  999.0,  999.0,  999.0,   22.0,  999.0,  999.0,  999.0,  999.0,  999.0,  999.0,   41.5,  999.0,   41.5,   41.9,   41.8
2000/11/06 17:10,  999.0,    0.1,   -0.6,    0.3,    1.2,    1.7,    1.6,    5.2,    4.0,    3.5,    2.6,  999.0,  -11.0,  -21.5,  999.0,  -21.3,  -20.8,   -9.4,   -8.4,   -4.6,  -18.1,  -17.4,    4.5,    5.4,   -3.6,  -14.1,  -13.0,  -11.7,  -11.3,  -10.2,   -9.9,  999.0,   13.2,   35.1,  999.0,    9.4,  999.0,   37.8,   38.8,   39.1,  999.0,  999.0,   41.2,  999.0,   42.9,   37.7,  999.0,   41.6,   42.4,  999.0,   42.1,   41.9,   41.7,   41.8,   42.4,   41.5,   41.1,   41.9
2000/11/06 17:20,  999.0,    1.0,    1.0,    0.2,   -0.0,   -0.0,    3.4,    4.8,  999.0,    4.3,    3.0,  999.0,    0.5,   -2.2,  999.0,  999.0,  999.0,   21.4,  -18.9,  -17.7,  -22.9,  -14.8,  -21.5,  -21.8,  -12.3,  -25.8,  -25.1,  -20.3,  -19.6,   -7.2,   -8.1,  -17.2,  -21.6,  -41.5,  999.0,    7.5,  999.0,  999.0,  999.0,  999.0,  999.0,  999.0,  999.0,  999.0,  999.0,    0.5,  999.0,  999.0,  999.0,  999.0,    1.4,   43.0,   21.3,    0.7,  999.0,   21.4,   41.2,   21.6
2000/11/06 17:30,  999.0,    1.2,    0.7,    0.0,    0.2,    0.5,    1.2,  999.0,  999.0,  999.0,    2.3,    2.1,    0.0,  999.0,   -1.2,  999.0,  999.0,  999.0,  999.0,  999.0,  999.0,  -16.0,  -14.8,  -14.1,  -13.0,  -12.0,  -11.4,  -10.4,   -9.1,   -8.3,   -7.2,   -6.1,   -5.9,   -3.4,   -3.9,   -1.1,  999.0,  999.0,  999.0,  999.0,  999.0,  999.0,  999.0,  999.0,  999.0,  999.0,  999.0,  999.0,   41.7,   41.7,  999.0,   41.7,   41.1,   41.7,   41.7,   41.6,   42.0,   42.0
2000/11/06 17:40,  999.0,    0.6,    0.4,    1.4,    0.6,    0.4,    1.6,    1.5,  999.0,  999.0,    3.1,    2.0,   -0.6,   -2.9,   -0.0,   -1.8,  999.0,  999.0,  999.0,  -17.1,  999.0,  -14.4,  -13.4,  -12.3,  -11.4,  -10.3,   -8.9,  999.0,   -6.4,   -5.1,   -4.0,  999.0,   -1.8,  999.0,  999.0,  999.0,  999.0,  999.0,  999.0,  999.0,  999.0,  999.0,  999.0,  999.0,  999.0,   41.4,  999.0,   41.1,   42.4,   42.2,   41.7,   41.7,   42.1,   42.0,   41.9,   42.1,   41.6,   41.9
2000/11/06 17:50,  999.0,    0.9,   -1.0,    1.7,   -1.4,    0.5,    3.6,    3.4,    3.5,  999.0,  999.0,    1.1,    0.2,   -1.0,   -2.8,   -2.7,  999.0,  999.0,  999.0,  999.0,  999.0,  999.0,  -15.3,  -12.9,  999.0,  -10.6,  -11.3,   -9.8,  999.0,  999.0,  999.0,  999.0,  999.0,  999.0,  999.0,  999.0,   14.4,  999.0,  999.0,  999.0,  999.0,  999.0,  999.0,  999.0,  999.0,  999.0,  999.0,   41.8,   41.6,   41.7,   41.6,   41.8,   42.3,  999.0,   42.1,  999.0,   42.3,   41.6
2000/11/06 18:00,  999.0,   -6.2,    0.8,    1.2,    1.3,    2.3,    2.6,    3.6,    2.9,    2.4,    2.2,    0.1,   -1.7,   -0.3,   -1.3,  999.0,  999.0,   -5.9,   -1.7,   -0.6,  999.0,  999.0,  -13.0,   -2.4,  999.0,  -11.9,   -8.4,   -6.8,  999.0,  999.0,  999.0,  999.0,  999.0,  999.0,  999.0,  999.0,  999.0,  999.0,  999.0,  999.0,  999.0,  999.0,  999.0,  999.0,  999.0,  999.0,  999.0,  999.0,  999.0,  999.0,   41.3,  999.0,  999.0,   41.8,  999.0,  999.0,   41.9,   41.6
2000/11/06 18:10,  999.0,   -4.3,   -0.2,   -0.7,   -0.2,    1.8,    2.5,    2.8,    1.7,  999.0,  999.0,   -0.7,   -1.4,   -1.9,   -2.7,   -4.0,  999.0,   -4.9,   -3.4,   -3.7,  999.0,  999.0,  999.0,  999.0,  999.0,  999.0,  999.0,  999.0,  999.0,  999.0,   15.0,  999.0,  999.0,  999.0,  999.0,  999.0,  999.0,  999.0,  999.0,  999.0,  999.0,  999.0,  999.0,  999.0,  999.0,  999.0,  999.0,  999.0,   42.2,  999.0,  999.0,  999.0,  999.0,  999.0,   42.9,   41.7,  999.0,   42.3
2000/11/06 18:20,  999.0,  999.0,   -0.8,    3.6,    0.7,    0.3,    1.6,    0.1,    0.6,   -0.2,   -1.8,    5.5,    0.0,   -1.4,   -3.8,   -4.0,   -4.3,   -5.5,   -6.1,   -4.0,   -4.3,    1.8,  999.0,  999.0,  999.0,  999.0,  999.0,  999.0,  999.0,  999.0,  999.0,  999.0,  999.0,  999.0,  999.0,  999.0,  999.0,  999.0,  999.0,  999.0,  999.0,  999.0,  999.0,   42.0,  999.0,  999.0,   41.7,   41.9,   41.8,  999.0,  999.0,   41.9,   42.0,   42.0,   42.0,   41.9,   42.5,   41.3
2000/11/06 18:30,  999.0,    0.3,    0.2,    0.8,    1.7,    0.8,    1.7,    1.1,    0.5,    0.3,    2.6,    2.4,    0.9,    0.2,   -2.8,   -3.9,   -3.4,   -5.2,   -4.2,   -1.5,    0.2,  999.0,  999.0,  999.0,  999.0,  999.0,  999.0,  999.0,  999.0,  999.0,  999.0,  999.0,  999.0,  999.0,  999.0,   40.8,   41.4,  999.0,   42.2,   41.9,   41.8,   42.0,  999.0,   41.9,   42.3,  999.0,   41.7,  999.0,   42.3,   41.8,   40.6,   41.6,  999.0,   42.2,   42.2,  999.0,   42.0,   42.0
2000/11/06 18:40,  999.0,  999.0,  999.0,  999.0,    4.5,    1.4,    1.1,    0.1,    0.5,    0.6,   -1.0,   -1.9,   -4.8,   -1.3,    2.6,  999.0,   -3.0,   -3.2,  999.0,  999.0,  999.0,  999.0,  999.0,  999.0,  999.0,  999.0,  999.0,  999.0,  999.0,  999.0,  999.0,  999.0,  999.0,  999.0,  999.0,  999.0,  999.0,   41.3,   42.1,  999.0,  999.0,   42.0,  999.0,   41.9,   42.5,   41.7,  999.0,   41.6,   41.8,   41.2,   41.6,   41.3,   40.7,  999.0,  999.0,  999.0,  999.0,  999.0
2000/11/06 18:50,  999.0,  999.0,  999.0,    0.1,   -0.2,  999.0,    2.9,    0.6,    0.2,   -0.5,   -0.9,   -2.4,   -0.8,   -0.8,   -1.5,   -0.9,   -0.1,  999.0,  999.0,    5.0,  999.0,  999.0,  999.0,  999.0,  999.0,  999.0,  999.0,  999.0,  999.0,  999.0,  999.0,  999.0,  999.0,  999.0,  999.0,  999.0,   39.8,   41.2,   42.3,  999.0,   41.9,   41.0,   41.6,   41.2,   41.5,   41.2,   41.1,   41.6,  999.0,  999.0,   41.4,  999.0,   41.5,   41.4,  999.0,   41.2,   41.6,  999.0
2000/11/06 19:00,  999.0,  999.0,  999.0,    0.4,   -0.6,   -1.1,  999.0,    1.0,   -0.7,   -3.7,   -3.5,   -0.4,    0.3,    0.2,   -0.7,   -0.6,    0.8,  999.0,   -3.5,   -0.9,   -4.3,  999.0,  999.0,  999.0,  999.0,  999.0,  999.0,  999.0,  999.0,  999.0,  999.0,  999.0,  999.0,  999.0,  999.0,  999.0,  999.0,  999.0,  999.0,  999.0,  999.0,  999.0,  999.0,  999.0,  999.0,  999.0,  999.0,  999.0,  999.0,  999.0,  999.0,  999.0,  999.0,  999.0,  999.0,  999.0,  999.0,  999.0
2000/11/06 19:10,  999.0,    3.2,  999.0,   -1.4,   -0.5,   -2.7,   -2.8,   -0.2,    0.5,    4.5,    2.9,    0.2,   -2.7,  999.0,  999.0,  999.0,    2.5,    0.3,  999.0,   -5.1,   -3.1,   -1.2,    1.4,    1.3,    0.4,  999.0,  999.0,  999.0,  999.0,  999.0,  999.0,  999.0,  999.0,  999.0,  999.0,  999.0,  999.0,  999.0,  999.0,  999.0,  999.0,  999.0,  999.0,  999.0,  999.0,  999.0,  999.0,  999.0,  999.0,  999.0,  999.0,  999.0,  999.0,  999.0,  999.0,  999.0,  999.0,  999.0
2000/11/06 19:20,  999.0,    3.1,   -0.2,   -0.9,   -4.7,   -0.5,   -3.6,   -2.7,   -3.2,    2.3,    3.0,   -2.2,   -2.8,    2.8,    0.9,    2.8,    0.5,   -4.8,    0.4,   -7.5,  999.0,   -2.8,   -0.5,    3.0,    0.9,  999.0,  999.0,  999.0,  999.0,  999.0,  999.0,  999.0,  999.0,  999.0,  999.0,  999.0,  999.0,  999.0,  999.0,  999.0,  999.0,  999.0,  999.0,  999.0,  999.0,  999.0,  999.0,  999.0,  999.0,  999.0,  999.0,  999.0,  999.0,  999.0,  999.0,  999.0,  999.0,  999.0
2000/11/06 19:30,  999.0,    2.6,    2.1,    1.5,   -0.3,    1.3,   -1.1,   -4.3,   -1.1,    2.2,    1.9,   -0.5,   -0.9,    1.9,    0.9,    0.6,  999.0,    4.1,    3.0,    1.0,    1.3,  999.0,   -0.5,  999.0,    3.7,  999.0,  999.0,  999.0,  999.0,  999.0,  999.0,  999.0,  999.0,  999.0,  999.0,  999.0,  999.0,  999.0,  999.0,  999.0,  999.0,  999.0,  999.0,  999.0,  999.0,  999.0,  999.0,  999.0,  999.0,  999.0,  999.0,  999.0,  999.0,  999.0,  999.0,  999.0,  999.0,  999.0
2000/11/06 19:40,  999.0,    1.1,   -0.2,    1.0,    1.2,    0.1,   -1.8,   -5.5,   -1.4,   -3.6,   -1.3,    0.4,   -2.0,   -0.9,  999.0,  999.0,    0.8,    1.3,    1.1,   -0.2,   -1.3,   -0.3,    1.2,  999.0,  999.0,  999.0,    2.0,    1.8,  999.0,  999.0,  999.0,  999.0,  999.0,  999.0,  999.0,  999.0,  999.0,  999.0,  999.0,  999.0,   -0.1,  999.0,    1.4,  999.0,  999.0,  999.0,  999.0,  999.0,  999.0,  999.0,  999.0,  999.0,  999.0,  999.0,  999.0,  999.0,  999.0,  999.0
2000/11/06 19:50,  999.0,    2.6,   -0.3,    2.1,    0.2,   -0.5,    0.1,    4.0,    1.0,    0.2,   -3.2,   -3.2,    1.2,   -2.9,   -3.1,   -0.7,    0.8,   -1.3,    1.1,    1.5,    1.7,    1.4,    0.0,    1.4,  999.0,  999.0,  999.0,  999.0,  999.0,  999.0,  999.0,  999.0,  999.0,  999.0,  999.0,  999.0,  999.0,  999.0,  999.0,  999.0,  999.0,  999.0,  999.0,  999.0,  999.0,  999.0,  999.0,  999.0,  999.0,  999.0,  999.0,  999.0,  999.0,  999.0,  999.0,  999.0,  999.0,  999.0
2000/11/06 20:00,  999.0,   -2.9,   -2.3,   -2.1,   -0.7,    1.1,    3.3,   -1.4,    2.2,    4.1,    2.4,   -0.5,   -8.7,   -4.4,   -6.2,  999.0,  999.0,   -0.8,    1.3,  999.0,  999.0,   -3.7,    0.8,  999.0,  999.0,  999.0,    2.5,    3.9,  999.0,  999.0,  999.0,  999.0,  999.0,  999.0,  999.0,  999.0,  999.0,  999.0,  999.0,  999.0,  999.0,  999.0,  999.0,  999.0,  999.0,  999.0,  999.0,  999.0,  999.0,  999.0,  999.0,  999.0,  999.0,  999.0,  999.0,  999.0,  999.0,  999.0
2000/11/06 20:10,  999.0,    1.5,   -3.0,    2.6,    0.4,   -0.2,    0.3,    2.3,   -2.3,   -1.1,   -1.1,   -2.4,   -4.8,   -4.6,    0.4,  999.0,  999.0,   -0.3,    2.1,   -2.2,   -2.3,   -1.7,   -2.2,   -1.3,  999.0,  999.0,    0.5,  999.0,  999.0,  999.0,  999.0,  999.0,  999.0,  999.0,  999.0,  999.0,  999.0,  999.0,  999.0,  999.0,  999.0,  999.0,  999.0,  999.0,  999.0,  999.0,  999.0,  999.0,  999.0,  999.0,  999.0,  999.0,  999.0,  999.0,  999.0,  999.0,  999.0,  999.0
2000/11/06 20:20,  999.0,  999.0,  999.0,    5.2,    2.5,    4.3,    3.8,    5.4,    3.0,    2.2,   -3.6,    3.0,  999.0,    1.7,   -0.4,    0.6,    1.9,    5.0,  999.0,  999.0,  999.0,  999.0,   -1.3,   -0.4,  999.0,  999.0,  999.0,  999.0,  999.0,  999.0,  999.0,    2.1,  999.0,  999.0,  999.0,  999.0,  999.0,  999.0,  999.0,  999.0,  999.0,  999.0,  999.0,  999.0,  999.0,  999.0,  999.0,  999.0,  999.0,  999.0,  999.0,  999.0,  999.0,  999.0,  999.0,  999.0,  999.0,  999.0
2000/11/06 20:30,  999.0,   -1.9,    0.3,    2.6,  999.0,   -0.0,    1.1,    2.8,   -1.9,   -3.4,   -3.6,   -1.9,  999.0,  999.0,   -1.1,   -8.8,    2.0,  999.0,  999.0,  999.0,  999.0,  999.0,  999.0,  999.0,  999.0,  999.0,  999.0,  999.0,  999.0,  999.0,  999.0,  999.0,  999.0,  999.0,  999.0,  999.0,  999.0,  999.0,  999.0,  999.0,  999.0,  999.0,  999.0,  999.0,  999.0,  999.0,  999.0,  999.0,  999.0,  999.0,  999.0,  999.0,  999.0,  999.0,  999.0,  999.0,  999.0,  999.0
2000/11/06 20:40,  999.0,    2.2,    1.6,    3.1,    4.2,    2.9,   -1.1,    1.2,   -3.1,   -2.4,   -4.9,   -4.8,   -0.8,   -2.4,    2.4,  999.0,   -0.0,   -0.3,  999.0,  999.0,  999.0,  999.0,  999.0,  999.0,  999.0,  999.0,  999.0,  999.0,  999.0,  999.0,  999.0,  999.0,  999.0,  999.0,  999.0,  999.0,  999.0,  999.0,  999.0,  999.0,  999.0,  999.0,  999.0,  999.0,  999.0,  999.0,  999.0,  999.0,  999.0,  999.0,  999.0,  999.0,  999.0,  999.0,  999.0,  999.0,  999.0,  999.0
2000/11/06 20:50,  999.0,   -0.4,    0.6,    1.3,    0.0,   -5.6,    2.1,    1.9,   -3.5,   -1.6,   -6.5,   -4.1,  999.0,  999.0,  999.0,  999.0,   -1.3,   -0.5,  999.0,  999.0,  999.0,   -5.3,  999.0,  999.0,  999.0,  999.0,  999.0,  999.0,  999.0,  999.0,  999.0,  999.0,  999.0,  999.0,  999.0,  999.0,  999.0,  999.0,  999.0,  999.0,  999.0,  999.0,  999.0,  999.0,  999.0,  999.0,  999.0,  999.0,  999.0,  999.0,  999.0,  999.0,  999.0,  999.0,  999.0,  999.0,  999.0,  999.0
2000/11/06 21:00,  999.0,   -0.4,    2.6,    2.1,    0.9,    2.0,    1.9,    0.8,    0.3,   -1.6,   -4.1,    1.5,    2.4,    5.8,  999.0,  999.0,  999.0,  999.0,  999.0,    1.9,    1.4,  999.0,  999.0,  999.0,  999.0,  999.0,  999.0,  999.0,  999.0,  999.0,  999.0,  999.0,  999.0,    2.5,  999.0,  999.0,  999.0,  999.0,  999.0,  999.0,  999.0,  999.0,  999.0,  999.0,  999.0,  999.0,  999.0,  999.0,  999.0,  999.0,  999.0,  999.0,  999.0,  999.0,  999.0,  999.0,  999.0,  999.0
2000/11/06 21:10,  999.0,    0.7,  999.0,  999.0,   -0.4,   -4.2,   -2.4,   -7.6,    2.1,    2.2,   -5.1,    1.7,    1.8,   -1.2,    9.6,  999.0,  999.0,    0.3,    2.7,  999.0,    5.3,    5.7,    1.3,   -0.3,  999.0,  999.0,  999.0,  999.0,  999.0,  999.0,  999.0,  999.0,  999.0,  999.0,  999.0,  999.0,  999.0,  999.0,  999.0,  999.0,  999.0,  999.0,  999.0,  999.0,  999.0,  999.0,  999.0,  999.0,  999.0,  999.0,  999.0,  999.0,  999.0,  999.0,  999.0,  999.0,  999.0,  999.0
2000/11/06 21:20,  999.0,    0.6,   -2.0,  999.0,   -3.1,   -3.5,   -0.4,    1.8,   -0.8,   -4.2,  999.0,  999.0,    2.0,  999.0,  999.0,  999.0,    0.9,  999.0,    0.4,    0.1,  999.0,  999.0,  999.0,  999.0,   -2.6,  999.0,  999.0,  999.0,  999.0,  999.0,  999.0,  999.0,  999.0,  999.0,  999.0,  999.0,  999.0,  999.0,  999.0,  999.0,  999.0,  999.0,  999.0,  999.0,  999.0,  999.0,  999.0,  999.0,  999.0,  999.0,  999.0,  999.0,  999.0,  999.0,  999.0,  999.0,  999.0,  999.0
2000/11/06 21:30,  999.0,  999.0,  999.0,   -0.4,    0.9,    3.6,   -0.6,    0.7,    4.9,    1.3,   -0.7,   -0.9,    2.8,   -3.7,  999.0,  999.0,  999.0,  999.0,  999.0,  999.0,  999.0,  999.0,  999.0,  999.0,  999.0,  999.0,  999.0,  999.0,  999.0,  999.0,  999.0,  999.0,  999.0,  999.0,  999.0,  999.0,  999.0,  999.0,  999.0,  999.0,  999.0,  999.0,  999.0,  999.0,  999.0,  999.0,  999.0,  999.0,  999.0,  999.0,   24.1,  999.0,  999.0,  999.0,  999.0,   24.3,  999.0,  999.0
2000/11/06 21:40,  999.0,    3.1,  999.0,    5.3,  999.0,  999.0,    1.8,    1.6,   -1.8,    4.8,    5.6,   -4.9,   -2.7,    0.3,  999.0,  999.0,  999.0,   -2.5,   -3.6,  999.0,  999.0,   -4.6,  999.0,  999.0,  999.0,  999.0,  999.0,  999.0,  999.0,  999.0,  999.0,  999.0,  999.0,  999.0,  999.0,  999.0,  999.0,  999.0,  999.0,  999.0,  999.0,  999.0,  999.0,  999.0,  999.0,  999.0,  999.0,  999.0,  999.0,  999.0,  999.0,  999.0,  999.0,  999.0,  999.0,  999.0,  999.0,  999.0
2000/11/06 21:50,  999.0,  999.0,    4.2,  999.0,  999.0,   -1.1,  999.0,   -2.1,   -2.5,   -3.3,   -0.3,   -2.1,  999.0,   -2.4,   -2.7,   -3.0,   -3.1,   -3.4,   -1.3,   -2.2,   -5.1,  999.0,  999.0,  999.0,  999.0,  999.0,  999.0,  999.0,  999.0,  999.0,  999.0,  999.0,  999.0,  999.0,  999.0,  999.0,  999.0,  999.0,  999.0,  999.0,  999.0,  999.0,  999.0,  999.0,  999.0,  999.0,  999.0,  999.0,  999.0,  999.0,  999.0,  999.0,  999.0,  999.0,  999.0,   19.9,   19.3,  999.0
2000/11/06 22:00,  999.0,  999.0,  999.0,  999.0,  999.0,   -1.8,   -1.2,   -1.4,   -0.0,    0.6,   -0.0,    1.3,    2.5,    1.8,    1.4,   -4.9,   -4.0,   -5.6,   -5.2,  999.0,  999.0,  999.0,  999.0,  999.0,  999.0,  999.0,  999.0,  999.0,  999.0,  999.0,  999.0,  999.0,  999.0,  999.0,  999.0,  999.0,  999.0,  999.0,  999.0,  999.0,  999.0,  999.0,  999.0,  999.0,  999.0,  999.0,  999.0,  999.0,  999.0,  999.0,  999.0,  999.0,  999.0,  999.0,  999.0,  999.0,  999.0,  999.0
2000/11/06 22:10,  999.0,  999.0,    3.9,    1.7,    1.5,   -3.4,   -3.2,   -1.0,    0.3,    0.5,   -1.6,  999.0,  999.0,    1.9,    1.1,   -0.8,  999.0,  999.0,  999.0,  999.0,  999.0,  999.0,  999.0,  999.0,  999.0,  999.0,  999.0,  999.0,  999.0,  999.0,  999.0,  999.0,  999.0,  999.0,  999.0,  999.0,  999.0,  999.0,  999.0,  999.0,  999.0,  999.0,  999.0,  999.0,  999.0,  999.0,  999.0,  999.0,  999.0,  999.0,  999.0,  999.0,  999.0,  999.0,  999.0,  999.0,  999.0,  999.0
2000/11/06 22:20,  999.0,    4.0,   -1.5,   -2.9,  999.0,  999.0,   -0.7,    0.0,    0.1,   -1.0,  999.0,   -2.3,   -1.7,    1.5,   -2.0,   -0.1,  999.0,  999.0,  999.0,  999.0,  999.0,  999.0,  999.0,  999.0,  999.0,  999.0,  999.0,  999.0,  999.0,  999.0,  999.0,  999.0,  999.0,  999.0,  999.0,  999.0,  999.0,  999.0,  999.0,  999.0,  999.0,  999.0,  999.0,  999.0,  999.0,  999.0,   41.5,   42.0,  999.0,  999.0,   41.6,   41.3,  999.0,   41.4,   42.0,  999.0,   41.4,  999.0
2000/11/06 22:30,  999.0,  999.0,    1.5,  999.0,    1.5,    2.8,    2.7,    5.5,    1.4,   -0.3,    0.8,  999.0,  999.0,   -0.9,   -0.3,  999.0,  999.0,  999.0,    0.3,  999.0,  999.0,  999.0,  999.0,  999.0,  999.0,   10.3,  999.0,   11.9,  999.0,  999.0,  999.0,  999.0,  999.0,   19.3,  999.0,  999.0,   37.6,  999.0,  999.0,   39.8,  999.0,  999.0,   41.0,  999.0,   41.4,   41.6,  999.0,  999.0,   41.2,  999.0,   41.2,   41.2,  999.0,   41.0,   41.8,  999.0,  999.0,   41.9
2000/11/06 22:40,  999.0,    1.5,   -1.1,    0.9,    1.7,    2.7,    9.7,    1.4,    3.1,    5.7,    1.1,  999.0,   -0.4,   -0.6,   -0.3,  999.0,  999.0,  999.0,  999.0,  999.0,  999.0,  999.0,  999.0,  999.0,  999.0,  999.0,  999.0,  999.0,  999.0,  999.0,  999.0,  999.0,  999.0,  999.0,  999.0,  999.0,  999.0,  999.0,  999.0,  999.0,  999.0,  999.0,  999.0,  999.0,  999.0,  999.0,  999.0,  999.0,  999.0,  999.0,  999.0,  999.0,  999.0,  999.0,  999.0,  999.0,  999.0,  999.0
2000/11/06 22:50,  999.0,  999.0,  999.0,    0.4,  999.0,    3.8,    0.2,   -1.6,   -3.1,   -2.8,  999.0,    6.2,   -0.5,   -2.0,   -2.1,  999.0,   -0.3,  999.0,  999.0,    6.2,  999.0,   -2.9,  999.0,  999.0,  999.0,  999.0,  999.0,  999.0,  999.0,  999.0,  999.0,  999.0,  999.0,  999.0,  999.0,  999.0,  999.0,  999.0,  999.0,   37.6,  999.0,   38.9,   40.1,   39.4,   39.8,   40.4,   41.9,   41.3,   41.3,   41.6,  999.0,   42.3,   41.8,   41.9,  999.0,  999.0,  999.0,   41.7
2000/11/06 23:00,  999.0,  999.0,  999.0,  999.0,   -0.2,    0.2,   -0.8,    1.3,   -0.4,    1.6,    3.0,    1.3,    0.4,  999.0,    0.7,   -1.8,   -1.2,  999.0,   -2.0,  999.0,  999.0,  999.0,   -0.5,  999.0,  999.0,    3.4,  999.0,  999.0,  999.0,  999.0,  999.0,  999.0,  999.0,  999.0,   29.6,  999.0,   32.1,  999.0,   35.2,  999.0,   37.5,   38.3,   38.6,  999.0,  999.0,   42.1,   41.4,   39.1,   39.3,   41.0,  999.0,   41.8,  999.0,   41.2,   41.5,   41.4,   41.2,   42.0
2000/11/06 23:10,  999.0,  999.0,  999.0,  999.0,    6.4,    2.3,    2.7,    2.2,    1.7,    2.6,   -0.3,   -1.3,    0.1,    3.2,  999.0,  999.0,  999.0,  999.0,  999.0,  999.0,  999.0,    3.7,  999.0,  999.0,  999.0,  999.0,  999.0,  999.0,  999.0,  999.0,  999.0,   28.0,   31.4,   31.7,   31.8,   34.7,   34.2,   35.3,   38.6,  999.0,   36.4,  999.0,  999.0,   41.8,  999.0,   41.2,   41.5,  999.0,   41.2,  999.0,   41.5,  999.0,   42.2,   41.9,   41.4,   42.2,   41.6,   42.1
2000/11/06 23:20,  999.0,  999.0,  999.0,    7.6,  999.0,  999.0,  999.0,    2.7,    1.9,    0.9,  999.0,  999.0,    7.3,  999.0,  999.0,  999.0,  999.0,  999.0,  999.0,  999.0,  999.0,  999.0,  999.0,  999.0,  999.0,  999.0,  999.0,  999.0,  999.0,  999.0,  999.0,   30.5,   31.4,   32.1,   32.7,   32.8,   34.9,   35.1,  999.0,   36.5,   36.4,   38.6,   38.6,   41.1,   39.9,   39.9,  999.0,  999.0,   41.8,  999.0,   41.2,   42.0,   41.9,   42.5,  999.0,  999.0,   41.4,  999.0
2000/11/06 23:30,  999.0,  999.0,  999.0,  999.0,    0.7,    3.4,    3.7,    2.2,    2.3,    1.9,    1.4,   -2.4,    6.5,  999.0,    4.4,  999.0,  999.0,  999.0,  999.0,  999.0,  999.0,  999.0,  999.0,  999.0,  999.0,  999.0,  999.0,  999.0,  999.0,  999.0,  999.0,  999.0,   29.1,  999.0,   29.6,   32.7,   32.3,   35.5,  999.0,  999.0,  999.0,  999.0,   37.7,  999.0,  999.0,   37.0,   37.7,   39.9,   39.2,   41.9,  999.0,   41.7,  999.0,   42.1,   41.5,   41.6,   41.9,  999.0
2000/11/06 23:40,  999.0,  999.0,  999.0,  999.0,    3.6,  999.0,    0.7,    2.0,    1.9,    3.3,  999.0,    0.7,    5.7,  999.0,  999.0,  999.0,  999.0,  999.0,  999.0,  999.0,  999.0,  999.0,  999.0,  999.0,  999.0,  999.0,  999.0,  999.0,   32.3,  999.0,   34.3,  999.0,   34.8,   36.0,  999.0,  999.0,   38.4,  999.0,   40.0,  999.0,  999.0,  999.0,   42.2,   41.7,  999.0,  999.0,   41.5,   41.4,   41.0,  999.0,  999.0,  999.0,   41.8,  999.0,   41.7,  999.0,  999.0,   40.9
2000/11/06 23:50,  999.0,   -0.1,    1.7,   -0.7,    2.0,   -2.8,    1.9,    2.7,    3.0,    3.4,    1.1,   -0.0,  999.0,  999.0,  999.0,  999.0,  999.0,    0.4,   -7.1,  999.0,  999.0,  999.0,  999.0,  999.0,  999.0,  999.0,  999.0,  999.0,  999.0,  999.0,  999.0,  999.0,  999.0,  999.0,  999.0,  999.0,  999.0,  999.0,  999.0,  999.0,  999.0,  999.0,  999.0,  999.0,  999.0,  999.0,  999.0,  999.0,  999.0,  999.0,  999.0,  999.0,  999.0,  999.0,  999.0,  999.0,  999.0,  999.0
